Observation data for Claude 12 Southwest on 09/11/2017      Previous  Date  Next       Current Mesonet Observations  Soil Data  Daily Summary Page  Observations in Plain Language
KCL1 110500Z 12008KT 18/10 A3026 RMK A01 T01810095  RH  057%=      5-min Rain = 0
KCL1 110501Z 13009KT 18/10 A3026 RMK A01 T01810095  RH  057%=      5-min Rain = 0
KCL1 110502Z 12010KT 18/10 A3026 RMK A01 T01800095  RH  057%=      5-min Rain = 0
KCL1 110503Z 12009KT 18/10 A3026 RMK A01 T01800095  RH  057%=      5-min Rain = 0
KCL1 110504Z 13010KT 18/10 A3026 RMK A01 T01800095  RH  057%=      5-min Rain = 0
KCL1 110505Z 12010KT 18/10 A3026 RMK A01 T01800095  RH  057%=      5-min Rain = 0
KCL1 110506Z 13010KT 18/10 A3026 RMK A01 T01800095  RH  058%=      5-min Rain = 0
KCL1 110507Z 13010KT 18/09 A3026 RMK A01 T01800094  RH  057%=      5-min Rain = 0
KCL1 110508Z 13010KT 18/10 A3026 RMK A01 T01800095  RH  057%=      5-min Rain = 0
KCL1 110509Z 13010KT 18/10 A3026 RMK A01 T01800095  RH  057%=      5-min Rain = 0
KCL1 110510Z 13009KT 18/10 A3026 RMK A01 T01800095  RH  057%=      5-min Rain = 0
KCL1 110511Z 13009KT 18/10 A3026 RMK A01 T01800095  RH  057%=      5-min Rain = 0
KCL1 110512Z 13010KT 18/09 A3026 RMK A01 T01800094  RH  057%=      5-min Rain = 0
KCL1 110513Z 13009KT 18/09 A3026 RMK A01 T01790094  RH  057%=      5-min Rain = 0
KCL1 110514Z 13009KT 18/09 A3026 RMK A01 T01790094  RH  057%=      5-min Rain = 0
KCL1 110515Z 13009KT 18/09 A3026 RMK A01 T01790094  RH  057%=      5-min Rain = 0
KCL1 110516Z 14009KT 18/09 A3026 RMK A01 T01790094  RH  057%=      5-min Rain = 0
KCL1 110517Z 14008KT 18/09 A3026 RMK A01 T01790094  RH  058%=      5-min Rain = 0
KCL1 110518Z 14008KT 18/09 A3026 RMK A01 T01790094  RH  058%=      5-min Rain = 0
KCL1 110519Z 14008KT 18/09 A3026 RMK A01 T01780094  RH  058%=      5-min Rain = 0
KCL1 110520Z 14008KT 18/09 A3026 RMK A01 T01780093  RH  058%=      5-min Rain = 0
KCL1 110521Z 14008KT 18/09 A3026 RMK A01 T01780093  RH  058%=      5-min Rain = 0
KCL1 110522Z 14007KT 18/09 A3026 RMK A01 T01780093  RH  058%=      5-min Rain = 0
KCL1 110523Z 14007KT 18/09 A3026 RMK A01 T01770093  RH  058%=      5-min Rain = 0
KCL1 110524Z 14008KT 18/09 A3026 RMK A01 T01760093  RH  058%=      5-min Rain = 0
KCL1 110525Z 14008KT 18/09 A3026 RMK A01 T01760093  RH  058%=      5-min Rain = 0
KCL1 110526Z 14008KT 18/09 A3026 RMK A01 T01760093  RH  058%=      5-min Rain = 0
KCL1 110527Z 14007KT 18/09 A3026 RMK A01 T01760093  RH  058%=      5-min Rain = 0
KCL1 110528Z 14007KT 18/09 A3026 RMK A01 T01760093  RH  058%=      5-min Rain = 0
KCL1 110529Z 15008KT 18/09 A3026 RMK A01 T01760093  RH  058%=      5-min Rain = 0
KCL1 110530Z 14008KT 18/09 A3026 RMK A01 T01760092  RH  058%=      5-min Rain = 0
KCL1 110531Z 15008KT 18/09 A3026 RMK A01 T01760092  RH  058%=      5-min Rain = 0
KCL1 110532Z 14009KT 18/09 A3026 RMK A01 T01760092  RH  058%=      5-min Rain = 0
KCL1 110533Z 15008KT 18/09 A3026 RMK A01 T01760092  RH  058%=      5-min Rain = 0
KCL1 110534Z 15008KT 18/09 A3026 RMK A01 T01760092  RH  058%=      5-min Rain = 0
KCL1 110535Z 14007KT 18/09 A3025 RMK A01 T01760092  RH  058%=      5-min Rain = 0
KCL1 110536Z 15008KT 18/09 A3025 RMK A01 T01760093  RH  058%=      5-min Rain = 0
KCL1 110537Z 15008KT 18/09 A3025 RMK A01 T01750092  RH  058%=      5-min Rain = 0
KCL1 110538Z 15008KT 18/09 A3025 RMK A01 T01760092  RH  058%=      5-min Rain = 0
KCL1 110539Z 15008KT 18/09 A3025 RMK A01 T01750092  RH  058%=      5-min Rain = 0
KCL1 110540Z 15008KT 18/09 A3025 RMK A01 T01750092  RH  058%=      5-min Rain = 0
KCL1 110541Z 15008KT 18/09 A3025 RMK A01 T01760092  RH  058%=      5-min Rain = 0
KCL1 110542Z 15008KT 18/09 A3025 RMK A01 T01760092  RH  058%=      5-min Rain = 0
KCL1 110543Z 15009KT 18/09 A3025 RMK A01 T01760091  RH  058%=      5-min Rain = 0
KCL1 110544Z 15009KT 18/09 A3025 RMK A01 T01760091  RH  057%=      5-min Rain = 0
KCL1 110545Z 15008KT 18/09 A3025 RMK A01 T01770092  RH  057%=      5-min Rain = 0
KCL1 110546Z 15008KT 18/09 A3025 RMK A01 T01770092  RH  057%=      5-min Rain = 0
KCL1 110547Z 15008KT 18/09 A3025 RMK A01 T01770092  RH  057%=      5-min Rain = 0
KCL1 110548Z 15008KT 18/09 A3025 RMK A01 T01770091  RH  057%=      5-min Rain = 0
KCL1 110549Z 15007KT 18/09 A3025 RMK A01 T01770091  RH  057%=      5-min Rain = 0
KCL1 110550Z 15009KT 18/09 A3025 RMK A01 T01770092  RH  057%=      5-min Rain = 0
KCL1 110551Z 15008KT 18/09 A3025 RMK A01 T01760091  RH  058%=      5-min Rain = 0
KCL1 110552Z 15008KT 18/09 A3025 RMK A01 T01760091  RH  058%=      5-min Rain = 0
KCL1 110553Z 14008KT 18/09 A3025 RMK A01 T01760091  RH  058%=      5-min Rain = 0
KCL1 110554Z 14008KT 18/09 A3025 RMK A01 T01760091  RH  058%=      5-min Rain = 0
KCL1 110555Z 15007KT 18/09 A3025 RMK A01 T01750091  RH  058%=      5-min Rain = 0
KCL1 110556Z 14007KT 18/09 A3025 RMK A01 T01750091  RH  058%=      5-min Rain = 0
KCL1 110557Z 14007KT 17/09 A3025 RMK A01 T01740092  RH  058%=      5-min Rain = 0
KCL1 110558Z 14007KT 17/09 A3025 RMK A01 T01740091  RH  058%=      5-min Rain = 0
KCL1 110559Z 15007KT 17/09 A3025 RMK A01 T01730091  RH  059%=      5-min Rain = 0
KCL1 110600Z 14007KT 17/09 A3025 RMK A01 T01720091  RH  059%=      5-min Rain = 0
KCL1 110601Z 15007KT 17/09 A3025 RMK A01 T01720091  RH  059%=      5-min Rain = 0
KCL1 110602Z 15007KT 17/09 A3025 RMK A01 T01710091  RH  059%=      5-min Rain = 0
KCL1 110603Z 15007KT 17/09 A3026 RMK A01 T01710091  RH  059%=      5-min Rain = 0
KCL1 110604Z 15006KT 17/09 A3026 RMK A01 T01700091  RH  060%=      5-min Rain = 0
KCL1 110605Z 15007KT 17/09 A3026 RMK A01 T01700091  RH  060%=      5-min Rain = 0
KCL1 110606Z 15006KT 17/09 A3026 RMK A01 T01690091  RH  060%=      5-min Rain = 0
KCL1 110607Z 15007KT 17/09 A3026 RMK A01 T01690091  RH  060%=      5-min Rain = 0
KCL1 110608Z 15006KT 17/09 A3026 RMK A01 T01680091  RH  060%=      5-min Rain = 0
KCL1 110609Z 15006KT 17/09 A3026 RMK A01 T01670091  RH  061%=      5-min Rain = 0
KCL1 110610Z 15007KT 17/09 A3026 RMK A01 T01670091  RH  061%=      5-min Rain = 0
KCL1 110611Z 15006KT 17/09 A3026 RMK A01 T01670091  RH  061%=      5-min Rain = 0
KCL1 110612Z 15007KT 17/09 A3026 RMK A01 T01660091  RH  061%=      5-min Rain = 0
KCL1 110613Z 15008KT 17/09 A3026 RMK A01 T01660091  RH  061%=      5-min Rain = 0
KCL1 110614Z 15007KT 17/09 A3025 RMK A01 T01660091  RH  061%=      5-min Rain = 0
KCL1 110615Z 15007KT 17/09 A3025 RMK A01 T01660091  RH  061%=      5-min Rain = 0
KCL1 110616Z 15007KT 17/09 A3025 RMK A01 T01660090  RH  061%=      5-min Rain = 0
KCL1 110617Z 15007KT 17/09 A3025 RMK A01 T01660090  RH  061%=      5-min Rain = 0
KCL1 110618Z 15007KT 17/09 A3025 RMK A01 T01660090  RH  061%=      5-min Rain = 0
KCL1 110619Z 15006KT 17/09 A3025 RMK A01 T01660090  RH  061%=      5-min Rain = 0
KCL1 110620Z 15007KT 17/09 A3025 RMK A01 T01660090  RH  061%=      5-min Rain = 0
KCL1 110621Z 15007KT 17/09 A3025 RMK A01 T01660090  RH  061%=      5-min Rain = 0
KCL1 110622Z 15007KT 17/09 A3025 RMK A01 T01660090  RH  061%=      5-min Rain = 0
KCL1 110623Z 15007KT 17/09 A3025 RMK A01 T01660090  RH  061%=      5-min Rain = 0
KCL1 110624Z 15007KT 17/09 A3025 RMK A01 T01660090  RH  061%=      5-min Rain = 0
KCL1 110625Z 15007KT 17/09 A3025 RMK A01 T01650090  RH  061%=      5-min Rain = 0
KCL1 110626Z 15007KT 17/09 A3025 RMK A01 T01650090  RH  061%=      5-min Rain = 0
KCL1 110627Z 15007KT 17/09 A3025 RMK A01 T01650090  RH  061%=      5-min Rain = 0
KCL1 110628Z 15007KT 17/09 A3025 RMK A01 T01650090  RH  061%=      5-min Rain = 0
KCL1 110629Z 15006KT 16/09 A3025 RMK A01 T01640090  RH  061%=      5-min Rain = 0
KCL1 110630Z 15007KT 16/09 A3025 RMK A01 T01640090  RH  061%=      5-min Rain = 0
KCL1 110631Z 15006KT 16/09 A3025 RMK A01 T01640090  RH  061%=      5-min Rain = 0
KCL1 110632Z 15007KT 17/09 A3025 RMK A01 T01650090  RH  061%=      5-min Rain = 0
KCL1 110633Z 15007KT 17/09 A3025 RMK A01 T01650090  RH  061%=      5-min Rain = 0
KCL1 110634Z 15007KT 17/09 A3025 RMK A01 T01650090  RH  061%=      5-min Rain = 0
KCL1 110635Z 15007KT 17/09 A3025 RMK A01 T01650090  RH  061%=      5-min Rain = 0
KCL1 110636Z 15007KT 17/09 A3025 RMK A01 T01650090  RH  061%=      5-min Rain = 0
KCL1 110637Z 15006KT 17/09 A3025 RMK A01 T01650090  RH  061%=      5-min Rain = 0
KCL1 110638Z 15007KT 17/09 A3025 RMK A01 T01650090  RH  061%=      5-min Rain = 0
KCL1 110639Z 15007KT 17/09 A3025 RMK A01 T01650090  RH  061%=      5-min Rain = 0
KCL1 110640Z 15007KT 16/09 A3025 RMK A01 T01640090  RH  061%=      5-min Rain = 0
KCL1 110641Z 15007KT 16/09 A3025 RMK A01 T01640090  RH  062%=      5-min Rain = 0
KCL1 110642Z 15007KT 16/09 A3025 RMK A01 T01630090  RH  062%=      5-min Rain = 0
KCL1 110643Z 15007KT 16/09 A3025 RMK A01 T01630090  RH  062%=      5-min Rain = 0
KCL1 110644Z 15008KT 16/09 A3025 RMK A01 T01630090  RH  062%=      5-min Rain = 0
KCL1 110645Z 15007KT 16/09 A3025 RMK A01 T01630090  RH  062%=      5-min Rain = 0
KCL1 110646Z 15007KT 16/09 A3025 RMK A01 T01630090  RH  062%=      5-min Rain = 0
KCL1 110647Z 15007KT 16/09 A3025 RMK A01 T01630090  RH  062%=      5-min Rain = 0
KCL1 110648Z 15007KT 16/09 A3025 RMK A01 T01630090  RH  062%=      5-min Rain = 0
KCL1 110649Z 15007KT 16/09 A3025 RMK A01 T01630090  RH  062%=      5-min Rain = 0
KCL1 110650Z 15007KT 16/09 A3025 RMK A01 T01630090  RH  062%=      5-min Rain = 0
KCL1 110651Z 15007KT 16/09 A3025 RMK A01 T01620090  RH  062%=      5-min Rain = 0
KCL1 110652Z 15006KT 16/09 A3025 RMK A01 T01620090  RH  062%=      5-min Rain = 0
KCL1 110653Z 15007KT 16/09 A3025 RMK A01 T01610090  RH  063%=      5-min Rain = 0
KCL1 110654Z 14007KT 16/09 A3025 RMK A01 T01610090  RH  063%=      5-min Rain = 0
KCL1 110655Z 14006KT 16/09 A3025 RMK A01 T01610090  RH  063%=      5-min Rain = 0
KCL1 110656Z 14007KT 16/09 A3025 RMK A01 T01610090  RH  063%=      5-min Rain = 0
KCL1 110657Z 15006KT 16/09 A3025 RMK A01 T01610090  RH  063%=      5-min Rain = 0
KCL1 110658Z 14006KT 16/09 A3025 RMK A01 T01600090  RH  063%=      5-min Rain = 0
KCL1 110659Z 14006KT 16/09 A3025 RMK A01 T01600090  RH  063%=      5-min Rain = 0
KCL1 110700Z 14006KT 16/09 A3025 RMK A01 T01590090  RH  063%=      5-min Rain = 0
KCL1 110701Z 14006KT 16/09 A3025 RMK A01 T01580089  RH  064%=      5-min Rain = 0
KCL1 110702Z 14006KT 16/09 A3025 RMK A01 T01570090  RH  064%=      5-min Rain = 0
KCL1 110703Z 14006KT 16/09 A3025 RMK A01 T01560089  RH  064%=      5-min Rain = 0
KCL1 110704Z 15007KT 16/09 A3025 RMK A01 T01560089  RH  065%=      5-min Rain = 0
KCL1 110705Z 15007KT 16/09 A3025 RMK A01 T01550089  RH  065%=      5-min Rain = 0
KCL1 110706Z 14007KT 16/09 A3025 RMK A01 T01550089  RH  065%=      5-min Rain = 0
KCL1 110707Z 15008KT 16/09 A3025 RMK A01 T01550089  RH  065%=      5-min Rain = 0
KCL1 110708Z 15007KT 16/09 A3025 RMK A01 T01550089  RH  065%=      5-min Rain = 0
KCL1 110709Z 15007KT 16/09 A3025 RMK A01 T01550089  RH  065%=      5-min Rain = 0
KCL1 110710Z 14007KT 16/09 A3025 RMK A01 T01560089  RH  064%=      5-min Rain = 0
KCL1 110711Z 15007KT 16/09 A3025 RMK A01 T01570090  RH  064%=      5-min Rain = 0
KCL1 110712Z 15007KT 16/09 A3025 RMK A01 T01570089  RH  064%=      5-min Rain = 0
KCL1 110713Z 15007KT 16/09 A3025 RMK A01 T01580089  RH  064%=      5-min Rain = 0
KCL1 110714Z 15008KT 16/09 A3025 RMK A01 T01580089  RH  064%=      5-min Rain = 0
KCL1 110715Z 15008KT 16/09 A3025 RMK A01 T01590089  RH  063%=      5-min Rain = 0
KCL1 110716Z 15007KT 16/09 A3025 RMK A01 T01600089  RH  063%=      5-min Rain = 0
KCL1 110717Z 15007KT 16/09 A3025 RMK A01 T01600089  RH  063%=      5-min Rain = 0
KCL1 110718Z 15007KT 16/09 A3025 RMK A01 T01600089  RH  063%=      5-min Rain = 0
KCL1 110719Z 15007KT 16/09 A3025 RMK A01 T01590089  RH  063%=      5-min Rain = 0
KCL1 110720Z 15007KT 16/09 A3025 RMK A01 T01580089  RH  063%=      5-min Rain = 0
KCL1 110721Z 15007KT 16/09 A3025 RMK A01 T01580089  RH  064%=      5-min Rain = 0
KCL1 110722Z 15007KT 16/09 A3025 RMK A01 T01580089  RH  064%=      5-min Rain = 0
KCL1 110723Z 15007KT 16/09 A3025 RMK A01 T01580089  RH  064%=      5-min Rain = 0
KCL1 110724Z 15007KT 16/09 A3025 RMK A01 T01570089  RH  064%=      5-min Rain = 0
KCL1 110725Z 15007KT 16/09 A3024 RMK A01 T01570089  RH  064%=      5-min Rain = 0
KCL1 110726Z 15007KT 16/09 A3024 RMK A01 T01570089  RH  064%=      5-min Rain = 0
KCL1 110727Z 15007KT 16/09 A3024 RMK A01 T01570089  RH  064%=      5-min Rain = 0
KCL1 110728Z 15007KT 16/09 A3024 RMK A01 T01580089  RH  064%=      5-min Rain = 0
KCL1 110729Z 14007KT 16/09 A3024 RMK A01 T01580089  RH  063%=      5-min Rain = 0
KCL1 110730Z 15007KT 16/09 A3024 RMK A01 T01580089  RH  063%=      5-min Rain = 0
KCL1 110731Z 15007KT 16/09 A3024 RMK A01 T01580089  RH  063%=      5-min Rain = 0
KCL1 110732Z 15007KT 16/09 A3024 RMK A01 T01580089  RH  064%=      5-min Rain = 0
KCL1 110733Z 15007KT 16/09 A3024 RMK A01 T01580089  RH  064%=      5-min Rain = 0
KCL1 110734Z 15007KT 16/09 A3024 RMK A01 T01580089  RH  064%=      5-min Rain = 0
KCL1 110735Z 15006KT 16/09 A3025 RMK A01 T01580089  RH  064%=      5-min Rain = 0
KCL1 110736Z 15006KT 16/09 A3025 RMK A01 T01580089  RH  064%=      5-min Rain = 0
KCL1 110737Z 15006KT 16/09 A3024 RMK A01 T01580089  RH  064%=      5-min Rain = 0
KCL1 110738Z 15006KT 16/09 A3024 RMK A01 T01580089  RH  064%=      5-min Rain = 0
KCL1 110739Z 15006KT 16/09 A3025 RMK A01 T01580089  RH  064%=      5-min Rain = 0
KCL1 110740Z 15006KT 16/09 A3025 RMK A01 T01580089  RH  063%=      5-min Rain = 0
KCL1 110741Z 16005KT 16/09 A3025 RMK A01 T01580089  RH  063%=      5-min Rain = 0
KCL1 110742Z 16005KT 16/09 A3025 RMK A01 T01590089  RH  063%=      5-min Rain = 0
KCL1 110743Z 15006KT 16/09 A3025 RMK A01 T01590089  RH  063%=      5-min Rain = 0
KCL1 110744Z 16005KT 16/09 A3025 RMK A01 T01590089  RH  063%=      5-min Rain = 0
KCL1 110745Z 16005KT 16/09 A3025 RMK A01 T01590089  RH  063%=      5-min Rain = 0
KCL1 110746Z 17005KT 16/09 A3024 RMK A01 T01590089  RH  063%=      5-min Rain = 0
KCL1 110747Z 16005KT 16/09 A3024 RMK A01 T01590089  RH  063%=      5-min Rain = 0
KCL1 110748Z 16005KT 16/09 A3024 RMK A01 T01590089  RH  063%=      5-min Rain = 0
KCL1 110749Z 16005KT 16/09 A3024 RMK A01 T01590089  RH  063%=      5-min Rain = 0
KCL1 110750Z 16005KT 16/09 A3024 RMK A01 T01590089  RH  063%=      5-min Rain = 0
KCL1 110751Z 16005KT 16/09 A3024 RMK A01 T01590089  RH  063%=      5-min Rain = 0
KCL1 110752Z 16005KT 16/09 A3024 RMK A01 T01580089  RH  063%=      5-min Rain = 0
KCL1 110753Z 15006KT 16/09 A3024 RMK A01 T01580089  RH  063%=      5-min Rain = 0
KCL1 110754Z 15006KT 16/09 A3024 RMK A01 T01580089  RH  064%=      5-min Rain = 0
KCL1 110755Z 15005KT 16/09 A3024 RMK A01 T01570089  RH  064%=      5-min Rain = 0
KCL1 110756Z 16005KT 16/09 A3024 RMK A01 T01570089  RH  064%=      5-min Rain = 0
KCL1 110757Z 16005KT 16/09 A3024 RMK A01 T01560089  RH  064%=      5-min Rain = 0
KCL1 110758Z 16005KT 16/09 A3024 RMK A01 T01560088  RH  064%=      5-min Rain = 0
KCL1 110759Z 15005KT 16/09 A3024 RMK A01 T01550089  RH  064%=      5-min Rain = 0
KCL1 110800Z 16005KT 16/09 A3024 RMK A01 T01550088  RH  065%=      5-min Rain = 0
KCL1 110801Z 15006KT 16/09 A3024 RMK A01 T01550089  RH  065%=      5-min Rain = 0
KCL1 110802Z 15006KT 15/09 A3024 RMK A01 T01540088  RH  065%=      5-min Rain = 0
KCL1 110803Z 15006KT 15/09 A3024 RMK A01 T01540088  RH  065%=      5-min Rain = 0
KCL1 110804Z 15006KT 15/09 A3024 RMK A01 T01530088  RH  065%=      5-min Rain = 0
KCL1 110805Z 16006KT 15/09 A3024 RMK A01 T01530088  RH  065%=      5-min Rain = 0
KCL1 110806Z 16006KT 15/09 A3024 RMK A01 T01530088  RH  065%=      5-min Rain = 0
KCL1 110807Z 16006KT 15/09 A3024 RMK A01 T01520088  RH  066%=      5-min Rain = 0
KCL1 110808Z 16006KT 15/09 A3024 RMK A01 T01520088  RH  066%=      5-min Rain = 0
KCL1 110809Z 16006KT 15/09 A3024 RMK A01 T01520088  RH  066%=      5-min Rain = 0
KCL1 110810Z 16006KT 15/09 A3024 RMK A01 T01520088  RH  065%=      5-min Rain = 0
KCL1 110811Z 16006KT 15/09 A3024 RMK A01 T01520088  RH  065%=      5-min Rain = 0
KCL1 110812Z 16006KT 15/09 A3024 RMK A01 T01520088  RH  065%=      5-min Rain = 0
KCL1 110813Z 16006KT 15/09 A3024 RMK A01 T01510087  RH  065%=      5-min Rain = 0
KCL1 110814Z 16006KT 15/09 A3024 RMK A01 T01520087  RH  065%=      5-min Rain = 0
KCL1 110815Z 16005KT 15/09 A3024 RMK A01 T01520088  RH  066%=      5-min Rain = 0
KCL1 110816Z 16005KT 15/09 A3024 RMK A01 T01510087  RH  066%=      5-min Rain = 0
KCL1 110817Z 16005KT 15/09 A3024 RMK A01 T01510088  RH  066%=      5-min Rain = 0
KCL1 110818Z 16006KT 15/09 A3024 RMK A01 T01510088  RH  066%=      5-min Rain = 0
KCL1 110819Z 16006KT 15/09 A3024 RMK A01 T01510087  RH  066%=      5-min Rain = 0
KCL1 110820Z 16006KT 15/09 A3024 RMK A01 T01510088  RH  066%=      5-min Rain = 0
KCL1 110821Z 16006KT 15/09 A3024 RMK A01 T01510088  RH  066%=      5-min Rain = 0
KCL1 110822Z 15006KT 15/09 A3024 RMK A01 T01510088  RH  066%=      5-min Rain = 0
KCL1 110823Z 15006KT 15/09 A3024 RMK A01 T01500087  RH  066%=      5-min Rain = 0
KCL1 110824Z 15007KT 15/09 A3024 RMK A01 T01500088  RH  066%=      5-min Rain = 0
KCL1 110825Z 15006KT 15/09 A3024 RMK A01 T01490087  RH  067%=      5-min Rain = 0
KCL1 110826Z 15006KT 15/09 A3024 RMK A01 T01490088  RH  067%=      5-min Rain = 0
KCL1 110827Z 15006KT 15/09 A3024 RMK A01 T01480088  RH  067%=      5-min Rain = 0
KCL1 110828Z 15006KT 15/09 A3024 RMK A01 T01480088  RH  067%=      5-min Rain = 0
KCL1 110829Z 15006KT 15/09 A3024 RMK A01 T01480087  RH  067%=      5-min Rain = 0
KCL1 110830Z 15006KT 15/09 A3024 RMK A01 T01480088  RH  067%=      5-min Rain = 0
KCL1 110831Z 15006KT 15/09 A3024 RMK A01 T01480088  RH  067%=      5-min Rain = 0
KCL1 110832Z 15007KT 15/09 A3024 RMK A01 T01480088  RH  067%=      5-min Rain = 0
KCL1 110833Z 15007KT 15/09 A3024 RMK A01 T01480088  RH  067%=      5-min Rain = 0
KCL1 110834Z 16007KT 15/09 A3024 RMK A01 T01480088  RH  067%=      5-min Rain = 0
KCL1 110835Z 15007KT 15/09 A3024 RMK A01 T01490088  RH  067%=      5-min Rain = 0
KCL1 110836Z 16007KT 15/09 A3024 RMK A01 T01500088  RH  066%=      5-min Rain = 0
KCL1 110837Z 16007KT 15/09 A3024 RMK A01 T01500088  RH  066%=      5-min Rain = 0
KCL1 110838Z 16007KT 15/09 A3024 RMK A01 T01500088  RH  066%=      5-min Rain = 0
KCL1 110839Z 15006KT 15/09 A3024 RMK A01 T01500088  RH  066%=      5-min Rain = 0
KCL1 110840Z 15007KT 15/09 A3024 RMK A01 T01500088  RH  066%=      5-min Rain = 0
KCL1 110841Z 15006KT 15/09 A3024 RMK A01 T01500088  RH  066%=      5-min Rain = 0
KCL1 110842Z 15006KT 15/09 A3024 RMK A01 T01500088  RH  067%=      5-min Rain = 0
KCL1 110843Z 15006KT 15/09 A3024 RMK A01 T01490088  RH  067%=      5-min Rain = 0
KCL1 110844Z 15006KT 15/09 A3024 RMK A01 T01490088  RH  067%=      5-min Rain = 0
KCL1 110845Z 15006KT 15/09 A3024 RMK A01 T01490088  RH  067%=      5-min Rain = 0
KCL1 110846Z 15005KT 15/09 A3024 RMK A01 T01490088  RH  067%=      5-min Rain = 0
KCL1 110847Z 15005KT 15/09 A3024 RMK A01 T01480088  RH  067%=      5-min Rain = 0
KCL1 110848Z 15005KT 15/09 A3024 RMK A01 T01480088  RH  067%=      5-min Rain = 0
KCL1 110849Z 15005KT 15/09 A3024 RMK A01 T01470088  RH  068%=      5-min Rain = 0
KCL1 110850Z 16005KT 15/09 A3024 RMK A01 T01470088  RH  068%=      5-min Rain = 0
KCL1 110851Z 16005KT 15/09 A3024 RMK A01 T01470088  RH  068%=      5-min Rain = 0
KCL1 110852Z 16005KT 15/09 A3024 RMK A01 T01470088  RH  068%=      5-min Rain = 0
KCL1 110853Z 16005KT 15/09 A3024 RMK A01 T01470088  RH  068%=      5-min Rain = 0
KCL1 110854Z 16005KT 15/09 A3024 RMK A01 T01470088  RH  068%=      5-min Rain = 0
KCL1 110855Z 16005KT 15/09 A3023 RMK A01 T01470088  RH  068%=      5-min Rain = 0
KCL1 110856Z 16005KT 15/09 A3023 RMK A01 T01470088  RH  068%=      5-min Rain = 0
KCL1 110857Z 16005KT 15/09 A3023 RMK A01 T01470088  RH  068%=      5-min Rain = 0
KCL1 110858Z 15005KT 15/09 A3023 RMK A01 T01470088  RH  068%=      5-min Rain = 0
KCL1 110859Z 15005KT 15/09 A3023 RMK A01 T01470088  RH  068%=      5-min Rain = 0
KCL1 110900Z 15005KT 15/09 A3023 RMK A01 T01460088  RH  068%=      5-min Rain = 0
KCL1 110901Z 16005KT 15/09 A3023 RMK A01 T01460088  RH  068%=      5-min Rain = 0
KCL1 110902Z 16005KT 15/09 A3023 RMK A01 T01460088  RH  068%=      5-min Rain = 0
KCL1 110903Z 16005KT 15/09 A3023 RMK A01 T01460088  RH  068%=      5-min Rain = 0
KCL1 110904Z 16005KT 15/09 A3024 RMK A01 T01460088  RH  068%=      5-min Rain = 0
KCL1 110905Z 16005KT 15/09 A3024 RMK A01 T01460088  RH  068%=      5-min Rain = 0
KCL1 110906Z 15005KT 15/09 A3024 RMK A01 T01460088  RH  068%=      5-min Rain = 0
KCL1 110907Z 15005KT 15/09 A3024 RMK A01 T01460088  RH  068%=      5-min Rain = 0
KCL1 110908Z 15005KT 15/09 A3024 RMK A01 T01460087  RH  068%=      5-min Rain = 0
KCL1 110909Z 15005KT 15/09 A3023 RMK A01 T01450087  RH  068%=      5-min Rain = 0
KCL1 110910Z 15005KT 15/09 A3023 RMK A01 T01450087  RH  068%=      5-min Rain = 0
KCL1 110911Z 15006KT 15/09 A3023 RMK A01 T01450087  RH  068%=      5-min Rain = 0
KCL1 110912Z 15006KT 14/09 A3024 RMK A01 T01440087  RH  068%=      5-min Rain = 0
KCL1 110913Z 15006KT 14/09 A3024 RMK A01 T01440087  RH  068%=      5-min Rain = 0
KCL1 110914Z 15006KT 14/09 A3024 RMK A01 T01440087  RH  068%=      5-min Rain = 0
KCL1 110915Z 15006KT 14/09 A3024 RMK A01 T01430087  RH  069%=      5-min Rain = 0
KCL1 110916Z 15006KT 14/09 A3024 RMK A01 T01430087  RH  069%=      5-min Rain = 0
KCL1 110917Z 15006KT 14/09 A3024 RMK A01 T01430087  RH  069%=      5-min Rain = 0
KCL1 110918Z 15006KT 14/09 A3024 RMK A01 T01420087  RH  069%=      5-min Rain = 0
KCL1 110919Z 15006KT 14/09 A3024 RMK A01 T01420087  RH  069%=      5-min Rain = 0
KCL1 110920Z 16006KT 14/09 A3024 RMK A01 T01430087  RH  069%=      5-min Rain = 0
KCL1 110921Z 16006KT 14/09 A3024 RMK A01 T01430087  RH  069%=      5-min Rain = 0
KCL1 110922Z 16005KT 14/09 A3024 RMK A01 T01440087  RH  068%=      5-min Rain = 0
KCL1 110923Z 17005KT 15/09 A3024 RMK A01 T01450087  RH  068%=      5-min Rain = 0
KCL1 110924Z 17005KT 15/09 A3024 RMK A01 T01460087  RH  068%=      5-min Rain = 0
KCL1 110925Z 18004KT 15/09 A3024 RMK A01 T01460088  RH  068%=      5-min Rain = 0
KCL1 110926Z 20004KT 15/09 A3024 RMK A01 T01460088  RH  068%=      5-min Rain = 0
KCL1 110927Z 21004KT 15/09 A3024 RMK A01 T01460088  RH  068%=      5-min Rain = 0
KCL1 110928Z 21003KT 15/09 A3024 RMK A01 T01460087  RH  068%=      5-min Rain = 0
KCL1 110929Z 21003KT 15/09 A3024 RMK A01 T01460087  RH  068%=      5-min Rain = 0
KCL1 110930Z 21004KT 15/09 A3023 RMK A01 T01470088  RH  068%=      5-min Rain = 0
KCL1 110931Z 21004KT 15/09 A3024 RMK A01 T01490088  RH  067%=      5-min Rain = 0
KCL1 110932Z 21004KT 15/09 A3024 RMK A01 T01490089  RH  067%=      5-min Rain = 0
KCL1 110933Z 21004KT 15/09 A3024 RMK A01 T01490089  RH  067%=      5-min Rain = 0
KCL1 110934Z 22003KT 15/09 A3024 RMK A01 T01490089  RH  067%=      5-min Rain = 0
KCL1 110935Z 21003KT 15/09 A3024 RMK A01 T01490089  RH  067%=      5-min Rain = 0
KCL1 110936Z 21004KT 15/09 A3024 RMK A01 T01480089  RH  068%=      5-min Rain = 0
KCL1 110937Z 20004KT 15/09 A3024 RMK A01 T01490089  RH  068%=      5-min Rain = 0
KCL1 110938Z 21004KT 15/09 A3024 RMK A01 T01480089  RH  068%=      5-min Rain = 0
KCL1 110939Z 21003KT 15/09 A3024 RMK A01 T01490089  RH  067%=      5-min Rain = 0
KCL1 110940Z 19004KT 15/09 A3024 RMK A01 T01490089  RH  067%=      5-min Rain = 0
KCL1 110941Z 19004KT 15/09 A3024 RMK A01 T01500089  RH  067%=      5-min Rain = 0
KCL1 110942Z 19004KT 15/09 A3024 RMK A01 T01510089  RH  066%=      5-min Rain = 0
KCL1 110943Z 19004KT 15/09 A3024 RMK A01 T01520089  RH  066%=      5-min Rain = 0
KCL1 110944Z 19004KT 15/09 A3024 RMK A01 T01530090  RH  066%=      5-min Rain = 0
KCL1 110945Z 19004KT 15/09 A3024 RMK A01 T01520089  RH  066%=      5-min Rain = 0
KCL1 110946Z 19004KT 15/09 A3024 RMK A01 T01520090  RH  066%=      5-min Rain = 0
KCL1 110947Z 18004KT 15/09 A3024 RMK A01 T01520089  RH  066%=      5-min Rain = 0
KCL1 110948Z 19004KT 15/09 A3024 RMK A01 T01510089  RH  066%=      5-min Rain = 0
KCL1 110949Z 18004KT 15/09 A3024 RMK A01 T01510089  RH  066%=      5-min Rain = 0
KCL1 110950Z 19005KT 15/09 A3024 RMK A01 T01510089  RH  066%=      5-min Rain = 0
KCL1 110951Z 19004KT 15/09 A3024 RMK A01 T01510089  RH  066%=      5-min Rain = 0
KCL1 110952Z 19004KT 15/09 A3024 RMK A01 T01510089  RH  067%=      5-min Rain = 0
KCL1 110953Z 18005KT 15/09 A3024 RMK A01 T01500089  RH  067%=      5-min Rain = 0
KCL1 110954Z 18004KT 15/09 A3024 RMK A01 T01510089  RH  067%=      5-min Rain = 0
KCL1 110955Z 18005KT 15/09 A3024 RMK A01 T01510089  RH  067%=      5-min Rain = 0
KCL1 110956Z 17004KT 15/09 A3024 RMK A01 T01500089  RH  067%=      5-min Rain = 0
KCL1 110957Z 18004KT 15/09 A3024 RMK A01 T01500089  RH  067%=      5-min Rain = 0
KCL1 110958Z 18005KT 15/09 A3024 RMK A01 T01500088  RH  066%=      5-min Rain = 0
KCL1 110959Z 18005KT 15/09 A3024 RMK A01 T01500088  RH  066%=      5-min Rain = 0
KCL1 111000Z 18004KT 15/09 A3024 RMK A01 T01500088  RH  066%=      5-min Rain = 0
KCL1 111001Z 18004KT 15/09 A3024 RMK A01 T01500089  RH  066%=      5-min Rain = 0
KCL1 111002Z 18004KT 15/09 A3024 RMK A01 T01500089  RH  067%=      5-min Rain = 0
KCL1 111003Z 18005KT 15/09 A3024 RMK A01 T01500088  RH  067%=      5-min Rain = 0
KCL1 111004Z 17004KT 15/09 A3024 RMK A01 T01490088  RH  067%=      5-min Rain = 0
KCL1 111005Z 17004KT 15/09 A3024 RMK A01 T01490088  RH  067%=      5-min Rain = 0
KCL1 111006Z 17004KT 15/09 A3024 RMK A01 T01490088  RH  067%=      5-min Rain = 0
KCL1 111007Z 17005KT 15/09 A3024 RMK A01 T01480088  RH  067%=      5-min Rain = 0
KCL1 111008Z 17005KT 15/09 A3024 RMK A01 T01480088  RH  067%=      5-min Rain = 0
KCL1 111009Z 17005KT 15/09 A3024 RMK A01 T01480088  RH  067%=      5-min Rain = 0
KCL1 111010Z 17005KT 15/09 A3024 RMK A01 T01480088  RH  067%=      5-min Rain = 0
KCL1 111011Z 17005KT 15/09 A3024 RMK A01 T01480088  RH  068%=      5-min Rain = 0
KCL1 111012Z 18005KT 15/09 A3024 RMK A01 T01480089  RH  068%=      5-min Rain = 0
KCL1 111013Z 17005KT 15/09 A3023 RMK A01 T01470088  RH  068%=      5-min Rain = 0
KCL1 111014Z 18005KT 15/09 A3023 RMK A01 T01470088  RH  068%=      5-min Rain = 0
KCL1 111015Z 18006KT 15/09 A3023 RMK A01 T01470088  RH  068%=      5-min Rain = 0
KCL1 111016Z 18005KT 15/09 A3023 RMK A01 T01470088  RH  068%=      5-min Rain = 0
KCL1 111017Z 18005KT 15/09 A3023 RMK A01 T01480088  RH  067%=      5-min Rain = 0
KCL1 111018Z 18006KT 15/09 A3023 RMK A01 T01480088  RH  067%=      5-min Rain = 0
KCL1 111019Z 18005KT 15/09 A3023 RMK A01 T01490088  RH  067%=      5-min Rain = 0
KCL1 111020Z 19006KT 15/09 A3023 RMK A01 T01490089  RH  067%=      5-min Rain = 0
KCL1 111021Z 18006KT 15/09 A3023 RMK A01 T01490089  RH  067%=      5-min Rain = 0
KCL1 111022Z 19006KT 15/09 A3023 RMK A01 T01490089  RH  067%=      5-min Rain = 0
KCL1 111023Z 19006KT 15/09 A3023 RMK A01 T01500089  RH  067%=      5-min Rain = 0
KCL1 111024Z 19006KT 15/09 A3023 RMK A01 T01500089  RH  067%=      5-min Rain = 0
KCL1 111025Z 19006KT 15/09 A3023 RMK A01 T01500089  RH  067%=      5-min Rain = 0
KCL1 111026Z 19006KT 15/09 A3023 RMK A01 T01510089  RH  067%=      5-min Rain = 0
KCL1 111027Z 19006KT 15/09 A3023 RMK A01 T01510089  RH  067%=      5-min Rain = 0
KCL1 111028Z 19005KT 15/09 A3023 RMK A01 T01510089  RH  067%=      5-min Rain = 0
KCL1 111029Z 19005KT 15/09 A3023 RMK A01 T01500089  RH  067%=      5-min Rain = 0
KCL1 111030Z 19005KT 15/09 A3023 RMK A01 T01500089  RH  067%=      5-min Rain = 0
KCL1 111031Z 20005KT 15/09 A3023 RMK A01 T01510090  RH  067%=      5-min Rain = 0
KCL1 111032Z 20005KT 15/09 A3023 RMK A01 T01500089  RH  067%=      5-min Rain = 0
KCL1 111033Z 19005KT 15/09 A3023 RMK A01 T01500089  RH  067%=      5-min Rain = 0
KCL1 111034Z 20005KT 15/09 A3023 RMK A01 T01500089  RH  067%=      5-min Rain = 0
KCL1 111035Z 20004KT 15/09 A3023 RMK A01 T01500089  RH  067%=      5-min Rain = 0
KCL1 111036Z 19004KT 15/09 A3023 RMK A01 T01500089  RH  067%=      5-min Rain = 0
KCL1 111037Z 19004KT 15/09 A3023 RMK A01 T01500089  RH  067%=      5-min Rain = 0
KCL1 111038Z 19005KT 15/09 A3024 RMK A01 T01500089  RH  067%=      5-min Rain = 0
KCL1 111039Z 19005KT 15/09 A3024 RMK A01 T01500089  RH  067%=      5-min Rain = 0
KCL1 111040Z 19005KT 15/09 A3024 RMK A01 T01490089  RH  067%=      5-min Rain = 0
KCL1 111041Z 19005KT 15/09 A3024 RMK A01 T01480089  RH  068%=      5-min Rain = 0
KCL1 111042Z 19005KT 15/09 A3024 RMK A01 T01470089  RH  068%=      5-min Rain = 0
KCL1 111043Z 19005KT 15/09 A3024 RMK A01 T01470089  RH  068%=      5-min Rain = 0
KCL1 111044Z 19005KT 15/09 A3024 RMK A01 T01460089  RH  068%=      5-min Rain = 0
KCL1 111045Z 19005KT 15/09 A3024 RMK A01 T01450089  RH  069%=      5-min Rain = 0
KCL1 111046Z 19005KT 15/09 A3024 RMK A01 T01450089  RH  069%=      5-min Rain = 0
KCL1 111047Z 18005KT 15/09 A3024 RMK A01 T01450089  RH  069%=      5-min Rain = 0
KCL1 111048Z 18005KT 14/09 A3024 RMK A01 T01440089  RH  069%=      5-min Rain = 0
KCL1 111049Z 18005KT 14/09 A3024 RMK A01 T01440089  RH  069%=      5-min Rain = 0
KCL1 111050Z 18006KT 14/09 A3024 RMK A01 T01440089  RH  069%=      5-min Rain = 0
KCL1 111051Z 18006KT 14/09 A3024 RMK A01 T01440089  RH  069%=      5-min Rain = 0
KCL1 111052Z 18006KT 14/09 A3024 RMK A01 T01440089  RH  069%=      5-min Rain = 0
KCL1 111053Z 18006KT 14/09 A3024 RMK A01 T01440089  RH  069%=      5-min Rain = 0
KCL1 111054Z 18005KT 14/09 A3024 RMK A01 T01440089  RH  069%=      5-min Rain = 0
KCL1 111055Z 18005KT 14/09 A3024 RMK A01 T01430088  RH  070%=      5-min Rain = 0
KCL1 111056Z 19005KT 14/09 A3024 RMK A01 T01430089  RH  070%=      5-min Rain = 0
KCL1 111057Z 19005KT 14/09 A3024 RMK A01 T01430089  RH  070%=      5-min Rain = 0
KCL1 111058Z 19005KT 14/09 A3024 RMK A01 T01440089  RH  070%=      5-min Rain = 0
KCL1 111059Z 20005KT 14/09 A3024 RMK A01 T01440089  RH  069%=      5-min Rain = 0
KCL1 111100Z 20005KT 15/09 A3024 RMK A01 T01450089  RH  069%=      5-min Rain = 0
KCL1 111101Z 20005KT 15/09 A3024 RMK A01 T01450089  RH  069%=      5-min Rain = 0
KCL1 111102Z 20005KT 15/09 A3024 RMK A01 T01460089  RH  069%=      5-min Rain = 0
KCL1 111103Z 20006KT 15/09 A3024 RMK A01 T01460088  RH  068%=      5-min Rain = 0
KCL1 111104Z 20006KT 15/09 A3024 RMK A01 T01470089  RH  068%=      5-min Rain = 0
KCL1 111105Z 21005KT 15/09 A3024 RMK A01 T01470088  RH  068%=      5-min Rain = 0
KCL1 111106Z 21005KT 15/09 A3024 RMK A01 T01480089  RH  067%=      5-min Rain = 0
KCL1 111107Z 21005KT 15/09 A3024 RMK A01 T01480088  RH  067%=      5-min Rain = 0
KCL1 111108Z 21005KT 15/09 A3024 RMK A01 T01490089  RH  067%=      5-min Rain = 0
KCL1 111109Z 20005KT 15/09 A3023 RMK A01 T01480088  RH  067%=      5-min Rain = 0
KCL1 111110Z 20005KT 15/09 A3023 RMK A01 T01480089  RH  067%=      5-min Rain = 0
KCL1 111111Z 20005KT 15/09 A3023 RMK A01 T01490089  RH  067%=      5-min Rain = 0
KCL1 111112Z 20005KT 15/09 A3023 RMK A01 T01490088  RH  067%=      5-min Rain = 0
KCL1 111113Z 19006KT 15/09 A3023 RMK A01 T01500089  RH  067%=      5-min Rain = 0
KCL1 111114Z 19006KT 15/09 A3023 RMK A01 T01500088  RH  067%=      5-min Rain = 0
KCL1 111115Z 19005KT 15/09 A3024 RMK A01 T01500088  RH  067%=      5-min Rain = 0
KCL1 111116Z 19006KT 15/09 A3024 RMK A01 T01500089  RH  067%=      5-min Rain = 0
KCL1 111117Z 19006KT 15/09 A3024 RMK A01 T01500088  RH  067%=      5-min Rain = 0
KCL1 111118Z 19006KT 15/09 A3024 RMK A01 T01500089  RH  067%=      5-min Rain = 0
KCL1 111119Z 19006KT 15/09 A3024 RMK A01 T01500088  RH  067%=      5-min Rain = 0
KCL1 111120Z 19006KT 15/09 A3024 RMK A01 T01490088  RH  067%=      5-min Rain = 0
KCL1 111121Z 19006KT 15/09 A3024 RMK A01 T01490088  RH  067%=      5-min Rain = 0
KCL1 111122Z 19006KT 15/09 A3024 RMK A01 T01500088  RH  067%=      5-min Rain = 0
KCL1 111123Z 19006KT 15/09 A3024 RMK A01 T01500088  RH  067%=      5-min Rain = 0
KCL1 111124Z 19006KT 15/09 A3024 RMK A01 T01500088  RH  067%=      5-min Rain = 0
KCL1 111125Z 19006KT 15/09 A3024 RMK A01 T01490088  RH  067%=      5-min Rain = 0
KCL1 111126Z 19006KT 15/09 A3024 RMK A01 T01490087  RH  066%=      5-min Rain = 0
KCL1 111127Z 19006KT 15/09 A3024 RMK A01 T01500087  RH  066%=      5-min Rain = 0
KCL1 111128Z 19006KT 15/09 A3024 RMK A01 T01500088  RH  066%=      5-min Rain = 0
KCL1 111129Z 19006KT 15/09 A3024 RMK A01 T01490087  RH  066%=      5-min Rain = 0
KCL1 111130Z 19006KT 15/09 A3024 RMK A01 T01490087  RH  067%=      5-min Rain = 0
KCL1 111131Z 18006KT 15/09 A3024 RMK A01 T01490087  RH  067%=      5-min Rain = 0
KCL1 111132Z 18006KT 15/09 A3024 RMK A01 T01480087  RH  067%=      5-min Rain = 0
KCL1 111133Z 19006KT 15/09 A3024 RMK A01 T01480087  RH  067%=      5-min Rain = 0
KCL1 111134Z 19006KT 15/09 A3024 RMK A01 T01480087  RH  067%=      5-min Rain = 0
KCL1 111135Z 19006KT 15/09 A3024 RMK A01 T01480087  RH  066%=      5-min Rain = 0
KCL1 111136Z 19006KT 15/09 A3024 RMK A01 T01490087  RH  066%=      5-min Rain = 0
KCL1 111137Z 19006KT 15/09 A3024 RMK A01 T01490087  RH  066%=      5-min Rain = 0
KCL1 111138Z 19006KT 15/09 A3024 RMK A01 T01490086  RH  066%=      5-min Rain = 0
KCL1 111139Z 19006KT 15/09 A3024 RMK A01 T01490087  RH  066%=      5-min Rain = 0
KCL1 111140Z 19006KT 15/09 A3024 RMK A01 T01490087  RH  066%=      5-min Rain = 0
KCL1 111141Z 19005KT 15/09 A3024 RMK A01 T01500087  RH  066%=      5-min Rain = 0
KCL1 111142Z 19005KT 15/09 A3024 RMK A01 T01490086  RH  066%=      5-min Rain = 0
KCL1 111143Z 19006KT 15/09 A3024 RMK A01 T01490086  RH  066%=      5-min Rain = 0
KCL1 111144Z 19005KT 15/09 A3024 RMK A01 T01490086  RH  066%=      5-min Rain = 0
KCL1 111145Z 19005KT 15/09 A3024 RMK A01 T01500086  RH  066%=      5-min Rain = 0
KCL1 111146Z 19005KT 15/09 A3024 RMK A01 T01500086  RH  066%=      5-min Rain = 0
KCL1 111147Z 19005KT 15/09 A3024 RMK A01 T01500086  RH  066%=      5-min Rain = 0
KCL1 111148Z 19005KT 15/09 A3024 RMK A01 T01500087  RH  066%=      5-min Rain = 0
KCL1 111149Z 19005KT 15/09 A3024 RMK A01 T01500086  RH  066%=      5-min Rain = 0
KCL1 111150Z 19006KT 15/09 A3024 RMK A01 T01500087  RH  066%=      5-min Rain = 0
KCL1 111151Z 19006KT 15/09 A3024 RMK A01 T01500086  RH  066%=      5-min Rain = 0
KCL1 111152Z 18006KT 15/09 A3024 RMK A01 T01500086  RH  066%=      5-min Rain = 0
KCL1 111153Z 18006KT 15/09 A3024 RMK A01 T01490086  RH  066%=      5-min Rain = 0
KCL1 111154Z 19006KT 15/09 A3024 RMK A01 T01490086  RH  066%=      5-min Rain = 0
KCL1 111155Z 19006KT 15/09 A3024 RMK A01 T01480086  RH  066%=      5-min Rain = 0
KCL1 111156Z 19006KT 15/09 A3024 RMK A01 T01490086  RH  066%=      5-min Rain = 0
KCL1 111157Z 19006KT 15/09 A3024 RMK A01 T01480086  RH  066%=      5-min Rain = 0
KCL1 111158Z 19006KT 15/09 A3024 RMK A01 T01480086  RH  066%=      5-min Rain = 0
KCL1 111159Z 19006KT 15/09 A3024 RMK A01 T01490086  RH  066%=      5-min Rain = 0
KCL1 111200Z 19006KT 15/09 A3024 RMK A01 T01480086  RH  066%=      5-min Rain = 0
KCL1 111201Z 19006KT 15/09 A3024 RMK A01 T01480085  RH  066%=      5-min Rain = 0
KCL1 111202Z 19006KT 15/09 A3024 RMK A01 T01490086  RH  066%=      5-min Rain = 0
KCL1 111203Z 19006KT 15/09 A3024 RMK A01 T01490085  RH  066%=      5-min Rain = 0
KCL1 111204Z 20006KT 15/09 A3024 RMK A01 T01500085  RH  065%=      5-min Rain = 0
KCL1 111205Z 20005KT 15/09 A3024 RMK A01 T01500085  RH  065%=      5-min Rain = 0
KCL1 111206Z 20005KT 15/09 A3024 RMK A01 T01500085  RH  065%=      5-min Rain = 0
KCL1 111207Z 20005KT 15/09 A3024 RMK A01 T01500085  RH  065%=      5-min Rain = 0
KCL1 111208Z 20005KT 15/09 A3024 RMK A01 T01500085  RH  065%=      5-min Rain = 0
KCL1 111209Z 21005KT 15/09 A3024 RMK A01 T01500085  RH  065%=      5-min Rain = 0
KCL1 111210Z 21004KT 15/09 A3024 RMK A01 T01500085  RH  065%=      5-min Rain = 0
KCL1 111211Z 21005KT 15/09 A3024 RMK A01 T01500085  RH  065%=      5-min Rain = 0
KCL1 111212Z 20005KT 15/09 A3024 RMK A01 T01490085  RH  065%=      5-min Rain = 0
KCL1 111213Z 21005KT 15/09 A3024 RMK A01 T01490085  RH  065%=      5-min Rain = 0
KCL1 111214Z 21004KT 15/09 A3024 RMK A01 T01490085  RH  065%=      5-min Rain = 0
KCL1 111215Z 21005KT 15/09 A3024 RMK A01 T01490085  RH  065%=      5-min Rain = 0
KCL1 111216Z 21004KT 15/09 A3024 RMK A01 T01490085  RH  066%=      5-min Rain = 0
KCL1 111217Z 21004KT 15/09 A3024 RMK A01 T01480085  RH  066%=      5-min Rain = 0
KCL1 111218Z 20005KT 15/09 A3024 RMK A01 T01480085  RH  066%=      5-min Rain = 0
KCL1 111219Z 21004KT 15/09 A3024 RMK A01 T01480085  RH  066%=      5-min Rain = 0
KCL1 111220Z 21004KT 15/09 A3024 RMK A01 T01480085  RH  066%=      5-min Rain = 0
KCL1 111221Z 22005KT 15/09 A3024 RMK A01 T01480085  RH  066%=      5-min Rain = 0
KCL1 111222Z 22004KT 15/09 A3024 RMK A01 T01480085  RH  066%=      5-min Rain = 0
KCL1 111223Z 22004KT 15/09 A3024 RMK A01 T01480085  RH  066%=      5-min Rain = 0
KCL1 111224Z 23004KT 15/09 A3024 RMK A01 T01470085  RH  066%=      5-min Rain = 0
KCL1 111225Z 22004KT 15/09 A3024 RMK A01 T01470085  RH  066%=      5-min Rain = 0
KCL1 111226Z 22003KT 15/09 A3024 RMK A01 T01470085  RH  066%=      5-min Rain = 0
KCL1 111227Z 21004KT 15/09 A3024 RMK A01 T01470085  RH  066%=      5-min Rain = 0
KCL1 111228Z 21004KT 15/09 A3024 RMK A01 T01470085  RH  066%=      5-min Rain = 0
KCL1 111229Z 21004KT 15/09 A3024 RMK A01 T01470085  RH  066%=      5-min Rain = 0
KCL1 111230Z 21004KT 15/09 A3024 RMK A01 T01470085  RH  066%=      5-min Rain = 0
KCL1 111231Z 21005KT 15/09 A3024 RMK A01 T01470085  RH  066%=      5-min Rain = 0
KCL1 111232Z 21005KT 15/08 A3024 RMK A01 T01480084  RH  066%=      5-min Rain = 0
KCL1 111233Z 21005KT 15/08 A3024 RMK A01 T01480084  RH  066%=      5-min Rain = 0
KCL1 111234Z 21005KT 15/08 A3024 RMK A01 T01490084  RH  065%=      5-min Rain = 0
KCL1 111235Z 21005KT 15/08 A3024 RMK A01 T01500084  RH  065%=      5-min Rain = 0
KCL1 111236Z 21004KT 15/08 A3024 RMK A01 T01500084  RH  064%=      5-min Rain = 0
KCL1 111237Z 21004KT 15/08 A3024 RMK A01 T01510084  RH  064%=      5-min Rain = 0
KCL1 111238Z 21004KT 15/08 A3024 RMK A01 T01510084  RH  064%=      5-min Rain = 0
KCL1 111239Z 21005KT 15/08 A3024 RMK A01 T01510084  RH  064%=      5-min Rain = 0
KCL1 111240Z 22005KT 15/08 A3024 RMK A01 T01510084  RH  064%=      5-min Rain = 0
KCL1 111241Z 21005KT 15/08 A3024 RMK A01 T01510083  RH  064%=      5-min Rain = 0
KCL1 111242Z 21005KT 15/08 A3024 RMK A01 T01510084  RH  064%=      5-min Rain = 0
KCL1 111243Z 21005KT 15/08 A3024 RMK A01 T01520084  RH  064%=      5-min Rain = 0
KCL1 111244Z 21005KT 15/08 A3024 RMK A01 T01520083  RH  064%=      5-min Rain = 0
KCL1 111245Z 20005KT 15/08 A3024 RMK A01 T01520084  RH  063%=      5-min Rain = 0
KCL1 111246Z 21005KT 15/08 A3024 RMK A01 T01530084  RH  063%=      5-min Rain = 0
KCL1 111247Z 21004KT 15/08 A3024 RMK A01 T01530084  RH  063%=      5-min Rain = 0
KCL1 111248Z 21004KT 15/08 A3024 RMK A01 T01530083  RH  063%=      5-min Rain = 0
KCL1 111249Z 20004KT 15/08 A3024 RMK A01 T01530084  RH  063%=      5-min Rain = 0
KCL1 111250Z 21005KT 15/08 A3024 RMK A01 T01530084  RH  063%=      5-min Rain = 0
KCL1 111251Z 21004KT 15/08 A3024 RMK A01 T01530084  RH  063%=      5-min Rain = 0
KCL1 111252Z 20005KT 15/08 A3024 RMK A01 T01530084  RH  063%=      5-min Rain = 0
KCL1 111253Z 20005KT 15/08 A3024 RMK A01 T01530084  RH  063%=      5-min Rain = 0
KCL1 111254Z 20005KT 15/08 A3024 RMK A01 T01530084  RH  063%=      5-min Rain = 0
KCL1 111255Z 21005KT 15/08 A3024 RMK A01 T01530084  RH  063%=      5-min Rain = 0
KCL1 111256Z 20005KT 15/08 A3024 RMK A01 T01540084  RH  063%=      5-min Rain = 0
KCL1 111257Z 20005KT 15/08 A3024 RMK A01 T01540084  RH  063%=      5-min Rain = 0
KCL1 111258Z 21005KT 15/08 A3024 RMK A01 T01540084  RH  063%=      5-min Rain = 0
KCL1 111259Z 20005KT 15/08 A3024 RMK A01 T01540084  RH  063%=      5-min Rain = 0
KCL1 111300Z 20005KT 15/08 A3024 RMK A01 T01540084  RH  063%=      5-min Rain = 0
KCL1 111301Z 21005KT 15/08 A3024 RMK A01 T01540084  RH  063%=      5-min Rain = 0
KCL1 111302Z 21005KT 16/08 A3024 RMK A01 T01550084  RH  063%=      5-min Rain = 0
KCL1 111303Z 21004KT 16/08 A3024 RMK A01 T01550084  RH  063%=      5-min Rain = 0
KCL1 111304Z 22004KT 16/08 A3024 RMK A01 T01550084  RH  063%=      5-min Rain = 0
KCL1 111305Z 21005KT 15/08 A3024 RMK A01 T01540084  RH  063%=      5-min Rain = 0
KCL1 111306Z 22004KT 16/08 A3024 RMK A01 T01550084  RH  063%=      5-min Rain = 0
KCL1 111307Z 22004KT 16/08 A3024 RMK A01 T01550084  RH  063%=      5-min Rain = 0
KCL1 111308Z 22004KT 16/09 A3024 RMK A01 T01550085  RH  063%=      5-min Rain = 0
KCL1 111309Z 21004KT 16/09 A3024 RMK A01 T01560085  RH  063%=      5-min Rain = 0
KCL1 111310Z 22003KT 16/09 A3024 RMK A01 T01560085  RH  062%=      5-min Rain = 0
KCL1 111311Z 22004KT 16/09 A3024 RMK A01 T01560085  RH  062%=      5-min Rain = 0
KCL1 111312Z 22004KT 16/09 A3024 RMK A01 T01560085  RH  062%=      5-min Rain = 0
KCL1 111313Z 22004KT 16/09 A3025 RMK A01 T01570085  RH  062%=      5-min Rain = 0
KCL1 111314Z 23004KT 16/09 A3025 RMK A01 T01570085  RH  062%=      5-min Rain = 0
KCL1 111315Z 22004KT 16/09 A3025 RMK A01 T01570085  RH  062%=      5-min Rain = 0
KCL1 111316Z 23005KT 16/09 A3025 RMK A01 T01580085  RH  062%=      5-min Rain = 0
KCL1 111317Z 23005KT 16/09 A3025 RMK A01 T01580085  RH  062%=      5-min Rain = 0
KCL1 111318Z 22004KT 16/09 A3025 RMK A01 T01590085  RH  061%=      5-min Rain = 0
KCL1 111319Z 22005KT 16/09 A3025 RMK A01 T01590085  RH  062%=      5-min Rain = 0
KCL1 111320Z 22004KT 16/08 A3025 RMK A01 T01590084  RH  061%=      5-min Rain = 0
KCL1 111321Z 22004KT 16/08 A3025 RMK A01 T01590084  RH  061%=      5-min Rain = 0
KCL1 111322Z 22005KT 16/09 A3025 RMK A01 T01590085  RH  061%=      5-min Rain = 0
KCL1 111323Z 22005KT 16/09 A3025 RMK A01 T01600085  RH  061%=      5-min Rain = 0
KCL1 111324Z 23004KT 16/09 A3025 RMK A01 T01600085  RH  061%=      5-min Rain = 0
KCL1 111325Z 23004KT 16/09 A3025 RMK A01 T01600086  RH  061%=      5-min Rain = 0
KCL1 111326Z 23005KT 16/09 A3025 RMK A01 T01610085  RH  061%=      5-min Rain = 0
KCL1 111327Z 23004KT 16/09 A3025 RMK A01 T01600085  RH  061%=      5-min Rain = 0
KCL1 111328Z 23004KT 16/09 A3025 RMK A01 T01610085  RH  061%=      5-min Rain = 0
KCL1 111329Z 23004KT 16/09 A3025 RMK A01 T01610085  RH  061%=      5-min Rain = 0
KCL1 111330Z 23005KT 16/09 A3025 RMK A01 T01610085  RH  061%=      5-min Rain = 0
KCL1 111331Z 23004KT 16/08 A3025 RMK A01 T01610084  RH  060%=      5-min Rain = 0
KCL1 111332Z 22005KT 16/09 A3025 RMK A01 T01620085  RH  060%=      5-min Rain = 0
KCL1 111333Z 22004KT 16/09 A3025 RMK A01 T01620085  RH  060%=      5-min Rain = 0
KCL1 111334Z 22004KT 16/09 A3025 RMK A01 T01620085  RH  060%=      5-min Rain = 0
KCL1 111335Z 22005KT 16/09 A3025 RMK A01 T01620085  RH  060%=      5-min Rain = 0
KCL1 111336Z 23006KT 16/09 A3025 RMK A01 T01620085  RH  060%=      5-min Rain = 0
KCL1 111337Z 22005KT 16/09 A3025 RMK A01 T01620085  RH  060%=      5-min Rain = 0
KCL1 111338Z 22005KT 16/09 A3025 RMK A01 T01630085  RH  060%=      5-min Rain = 0
KCL1 111339Z 22005KT 16/09 A3025 RMK A01 T01630085  RH  060%=      5-min Rain = 0
KCL1 111340Z 23004KT 16/09 A3025 RMK A01 T01630085  RH  060%=      5-min Rain = 0
KCL1 111341Z 23004KT 16/09 A3025 RMK A01 T01630085  RH  060%=      5-min Rain = 0
KCL1 111342Z 23004KT 16/09 A3025 RMK A01 T01630085  RH  060%=      5-min Rain = 0
KCL1 111343Z 22005KT 16/09 A3025 RMK A01 T01630085  RH  060%=      5-min Rain = 0
KCL1 111344Z 22004KT 16/09 A3025 RMK A01 T01640085  RH  060%=      5-min Rain = 0
KCL1 111345Z 22005KT 16/09 A3025 RMK A01 T01640086  RH  060%=      5-min Rain = 0
KCL1 111346Z 22005KT 17/09 A3025 RMK A01 T01650086  RH  060%=      5-min Rain = 0
KCL1 111347Z 21004KT 17/09 A3025 RMK A01 T01650086  RH  059%=      5-min Rain = 0
KCL1 111348Z 22004KT 17/09 A3025 RMK A01 T01650087  RH  060%=      5-min Rain = 0
KCL1 111349Z 22004KT 17/09 A3025 RMK A01 T01660087  RH  059%=      5-min Rain = 0
KCL1 111350Z 22003KT 17/09 A3025 RMK A01 T01670087  RH  059%=      5-min Rain = 0
KCL1 111351Z 22005KT 17/09 A3025 RMK A01 T01670087  RH  059%=      5-min Rain = 0
KCL1 111352Z 22005KT 17/09 A3025 RMK A01 T01680087  RH  059%=      5-min Rain = 0
KCL1 111353Z 22005KT 17/09 A3025 RMK A01 T01680086  RH  058%=      5-min Rain = 0
KCL1 111354Z 22004KT 17/09 A3025 RMK A01 T01690087  RH  059%=      5-min Rain = 0
KCL1 111355Z 22006KT 17/09 A3025 RMK A01 T01680086  RH  058%=      5-min Rain = 0
KCL1 111356Z 21005KT 17/09 A3025 RMK A01 T01690086  RH  058%=      5-min Rain = 0
KCL1 111357Z 21004KT 17/09 A3025 RMK A01 T01690086  RH  058%=      5-min Rain = 0
KCL1 111358Z 21004KT 17/09 A3025 RMK A01 T01690086  RH  058%=      5-min Rain = 0
KCL1 111359Z 21004KT 17/09 A3025 RMK A01 T01690087  RH  059%=      5-min Rain = 0
KCL1 111400Z 21005KT 17/09 A3025 RMK A01 T01700087  RH  058%=      5-min Rain = 0
KCL1 111401Z 21005KT 17/09 A3025 RMK A01 T01700087  RH  058%=      5-min Rain = 0
KCL1 111402Z 22006KT 17/09 A3025 RMK A01 T01700086  RH  058%=      5-min Rain = 0
KCL1 111403Z 21006KT 17/09 A3025 RMK A01 T01710087  RH  058%=      5-min Rain = 0
KCL1 111404Z 21006KT 17/09 A3025 RMK A01 T01710087  RH  058%=      5-min Rain = 0
KCL1 111405Z 21006KT 17/09 A3025 RMK A01 T01710086  RH  057%=      5-min Rain = 0
KCL1 111406Z 21004KT 17/09 A3025 RMK A01 T01710087  RH  057%=      5-min Rain = 0
KCL1 111407Z 21003KT 17/09 A3025 RMK A01 T01720088  RH  058%=      5-min Rain = 0
KCL1 111408Z 21004KT 17/09 A3025 RMK A01 T01730089  RH  058%=      5-min Rain = 0
KCL1 111409Z 21004KT 17/09 A3025 RMK A01 T01740089  RH  058%=      5-min Rain = 0
KCL1 111410Z 21006KT 18/09 A3025 RMK A01 T01750090  RH  057%=      5-min Rain = 0
KCL1 111411Z 22005KT 18/09 A3025 RMK A01 T01750089  RH  057%=      5-min Rain = 0
KCL1 111412Z 21004KT 18/09 A3025 RMK A01 T01750089  RH  057%=      5-min Rain = 0
KCL1 111413Z 21006KT 18/09 A3025 RMK A01 T01750089  RH  057%=      5-min Rain = 0
KCL1 111414Z 21005KT 18/09 A3025 RMK A01 T01760088  RH  056%=      5-min Rain = 0
KCL1 111415Z 21005KT 18/09 A3025 RMK A01 T01760089  RH  057%=      5-min Rain = 0
KCL1 111416Z 22005KT 18/09 A3025 RMK A01 T01760090  RH  057%=      5-min Rain = 0
KCL1 111417Z 22004KT 18/09 A3025 RMK A01 T01770090  RH  057%=      5-min Rain = 0
KCL1 111418Z 22005KT 18/09 A3025 RMK A01 T01780091  RH  057%=      5-min Rain = 0
KCL1 111419Z 22005KT 18/09 A3025 RMK A01 T01790091  RH  056%=      5-min Rain = 0
KCL1 111420Z 22005KT 18/09 A3025 RMK A01 T01800090  RH  056%=      5-min Rain = 0
KCL1 111421Z 22005KT 18/09 A3025 RMK A01 T01800090  RH  056%=      5-min Rain = 0
KCL1 111422Z 23005KT 18/09 A3025 RMK A01 T01800090  RH  056%=      5-min Rain = 0
KCL1 111423Z 23005KT 18/09 A3025 RMK A01 T01800090  RH  056%=      5-min Rain = 0
KCL1 111424Z 22005KT 18/09 A3025 RMK A01 T01800091  RH  056%=      5-min Rain = 0
KCL1 111425Z 23005KT 18/09 A3025 RMK A01 T01810091  RH  056%=      5-min Rain = 0
KCL1 111426Z 22005KT 18/09 A3025 RMK A01 T01820091  RH  056%=      5-min Rain = 0
KCL1 111427Z 23007KT 18/09 A3025 RMK A01 T01820091  RH  055%=      5-min Rain = 0
KCL1 111428Z 23006KT 18/09 A3025 RMK A01 T01820091  RH  055%=      5-min Rain = 0
KCL1 111429Z 23005KT 18/09 A3025 RMK A01 T01820092  RH  056%=      5-min Rain = 0
KCL1 111430Z 22005KT 18/09 A3025 RMK A01 T01820091  RH  055%=      5-min Rain = 0
KCL1 111431Z 23005KT 18/09 A3025 RMK A01 T01830092  RH  055%=      5-min Rain = 0
KCL1 111432Z 22006KT 18/09 A3025 RMK A01 T01840092  RH  055%=      5-min Rain = 0
KCL1 111433Z 21006KT 19/09 A3025 RMK A01 T01850093  RH  055%=      5-min Rain = 0
KCL1 111434Z 23005KT 19/09 A3025 RMK A01 T01860092  RH  054%=      5-min Rain = 0
KCL1 111435Z 24005KT 19/09 A3025 RMK A01 T01860093  RH  054%=      5-min Rain = 0
KCL1 111436Z 24006KT 19/09 A3025 RMK A01 T01870093  RH  054%=      5-min Rain = 0
KCL1 111437Z 22005KT 19/09 A3025 RMK A01 T01870093  RH  054%=      5-min Rain = 0
KCL1 111438Z 21006KT 19/09 A3025 RMK A01 T01870092  RH  054%=      5-min Rain = 0
KCL1 111439Z 23004KT 19/09 A3025 RMK A01 T01880094  RH  054%=      5-min Rain = 0
KCL1 111440Z 22006KT 19/09 A3025 RMK A01 T01880094  RH  054%=      5-min Rain = 0
KCL1 111441Z 24004KT 19/09 A3025 RMK A01 T01890094  RH  054%=      5-min Rain = 0
KCL1 111442Z 23007KT 19/09 A3025 RMK A01 T01900094  RH  054%=      5-min Rain = 0
KCL1 111443Z 23008KT 19/09 A3025 RMK A01 T01900093  RH  053%=      5-min Rain = 0
KCL1 111444Z 24006KT 19/09 A3025 RMK A01 T01900093  RH  053%=      5-min Rain = 0
KCL1 111445Z 23005KT 19/09 A3025 RMK A01 T01890093  RH  053%=      5-min Rain = 0
KCL1 111446Z 24005KT 19/09 A3025 RMK A01 T01900094  RH  054%=      5-min Rain = 0
KCL1 111447Z 23007KT 19/09 A3025 RMK A01 T01910094  RH  053%=      5-min Rain = 0
KCL1 111448Z 22005KT 19/09 A3025 RMK A01 T01910093  RH  053%=      5-min Rain = 0
KCL1 111449Z 23005KT 19/10 A3025 RMK A01 T01920096  RH  054%=      5-min Rain = 0
KCL1 111450Z 24006KT 19/10 A3025 RMK A01 T01940096  RH  053%=      5-min Rain = 0
KCL1 111451Z 23007KT 20/10 A3025 RMK A01 T01950096  RH  053%=      5-min Rain = 0
KCL1 111452Z 23007KT 20/10 A3025 RMK A01 T01960095  RH  052%=      5-min Rain = 0
KCL1 111453Z 23006KT 20/10 A3025 RMK A01 T01960095  RH  052%=      5-min Rain = 0
KCL1 111454Z 22006KT 20/10 A3025 RMK A01 T01970096  RH  052%=      5-min Rain = 0
KCL1 111455Z 22007KT 20/10 A3025 RMK A01 T01980095  RH  052%=      5-min Rain = 0
KCL1 111456Z 23009KT 20/10 A3025 RMK A01 T01980095  RH  051%=      5-min Rain = 0
KCL1 111457Z 23007KT 20/10 A3025 RMK A01 T01980095  RH  052%=      5-min Rain = 0
KCL1 111458Z 22007KT 20/10 A3025 RMK A01 T01980096  RH  052%=      5-min Rain = 0
KCL1 111459Z 23005KT 20/10 A3025 RMK A01 T01990097  RH  052%=      5-min Rain = 0
KCL1 111500Z 24005KT 20/10 A3025 RMK A01 T02010098  RH  052%=      5-min Rain = 0
KCL1 111501Z 23006KT 20/10 A3025 RMK A01 T02020098  RH  051%=      5-min Rain = 0
KCL1 111502Z 22006KT 20/10 A3025 RMK A01 T02030097  RH  051%=      5-min Rain = 0
KCL1 111503Z 23007KT 20/10 A3025 RMK A01 T02030097  RH  051%=      5-min Rain = 0
KCL1 111504Z 24006KT 20/10 A3025 RMK A01 T02030098  RH  051%=      5-min Rain = 0
KCL1 111505Z 24006KT 20/10 A3025 RMK A01 T02040098  RH  050%=      5-min Rain = 0
KCL1 111506Z 24006KT 21/10 A3025 RMK A01 T02050098  RH  050%=      5-min Rain = 0
KCL1 111507Z 24005KT 21/10 A3025 RMK A01 T02050098  RH  050%=      5-min Rain = 0
KCL1 111508Z 24008KT 21/10 A3025 RMK A01 T02070099  RH  050%=      5-min Rain = 0
KCL1 111509Z 24007KT 21/10 A3025 RMK A01 T02070099  RH  050%=      5-min Rain = 0
KCL1 111510Z 24005KT 21/10 A3024 RMK A01 T02070099  RH  050%=      5-min Rain = 0
KCL1 111511Z 22007KT 21/10 A3025 RMK A01 T02070099  RH  050%=      5-min Rain = 0
KCL1 111512Z 22007KT 21/10 A3024 RMK A01 T02080100  RH  050%=      5-min Rain = 0
KCL1 111513Z 21006KT 21/10 A3024 RMK A01 T02090101  RH  050%=      5-min Rain = 0
KCL1 111514Z 22007KT 21/10 A3025 RMK A01 T02110101  RH  050%=      5-min Rain = 0
KCL1 111515Z 22007KT 21/10 A3025 RMK A01 T02120100  RH  049%=      5-min Rain = 0
KCL1 111516Z 21009KT 21/10 A3025 RMK A01 T02120100  RH  049%=      5-min Rain = 0
KCL1 111517Z 22009KT 21/10 A3025 RMK A01 T02120100  RH  049%=      5-min Rain = 0
KCL1 111518Z 23006KT 21/10 A3025 RMK A01 T02120100  RH  049%=      5-min Rain = 0
KCL1 111519Z 23006KT 21/10 A3025 RMK A01 T02120101  RH  049%=      5-min Rain = 0
KCL1 111520Z 20006KT 21/10 A3025 RMK A01 T02130100  RH  049%=      5-min Rain = 0
KCL1 111521Z 21008KT 21/10 A3025 RMK A01 T02140101  RH  048%=      5-min Rain = 0
KCL1 111522Z 21007KT 21/10 A3025 RMK A01 T02140101  RH  048%=      5-min Rain = 0
KCL1 111523Z 22007KT 21/10 A3025 RMK A01 T02140103  RH  049%=      5-min Rain = 0
KCL1 111524Z 22007KT 22/10 A3025 RMK A01 T02160102  RH  048%=      5-min Rain = 0
KCL1 111525Z 22005KT 22/10 A3025 RMK A01 T02180102  RH  048%=      5-min Rain = 0
KCL1 111526Z 24005KT 22/10 A3025 RMK A01 T02190104  RH  048%=      5-min Rain = 0
KCL1 111527Z 23005KT 22/11 A3025 RMK A01 T02210105  RH  048%=      5-min Rain = 0
KCL1 111528Z 23007KT 22/10 A3025 RMK A01 T02220104  RH  047%=      5-min Rain = 0
KCL1 111529Z 25005KT 22/10 A3025 RMK A01 T02220103  RH  047%=      5-min Rain = 0
KCL1 111530Z 23006KT 22/10 A3025 RMK A01 T02220103  RH  047%=      5-min Rain = 0
KCL1 111531Z 23004KT 22/11 A3025 RMK A01 T02220105  RH  047%=      5-min Rain = 0
KCL1 111532Z 24006KT 22/11 A3025 RMK A01 T02230107  RH  047%=      5-min Rain = 0
KCL1 111533Z 23004KT 23/10 A3025 RMK A01 T02250104  RH  046%=      5-min Rain = 0
KCL1 111534Z 25006KT 23/11 A3025 RMK A01 T02250105  RH  046%=      5-min Rain = 0
KCL1 111535Z 21007KT 23/10 A3025 RMK A01 T02250104  RH  046%=      5-min Rain = 0
KCL1 111536Z 24007KT 23/11 A3025 RMK A01 T02250105  RH  046%=      5-min Rain = 0
KCL1 111537Z 25006KT 23/10 A3025 RMK A01 T02260104  RH  046%=      5-min Rain = 0
KCL1 111538Z 22007KT 23/11 A3025 RMK A01 T02270106  RH  046%=      5-min Rain = 0
KCL1 111539Z 23007KT 23/10 A3025 RMK A01 T02280103  RH  045%=      5-min Rain = 0
KCL1 111540Z 24007KT 23/10 A3025 RMK A01 T02270104  RH  046%=      5-min Rain = 0
KCL1 111541Z 25008KT 23/11 A3025 RMK A01 T02270105  RH  046%=      5-min Rain = 0
KCL1 111542Z 23005KT 23/10 A3025 RMK A01 T02280104  RH  045%=      5-min Rain = 0
KCL1 111543Z 22008KT 23/11 A3025 RMK A01 T02290106  RH  046%=      5-min Rain = 0
KCL1 111544Z 23008KT 23/10 A3025 RMK A01 T02300103  RH  045%=      5-min Rain = 0
KCL1 111545Z 23007KT 23/10 A3025 RMK A01 T02300103  RH  045%=      5-min Rain = 0
KCL1 111546Z 23005KT 23/10 A3025 RMK A01 T02290103  RH  045%=      5-min Rain = 0
KCL1 111547Z 22007KT 23/10 A3025 RMK A01 T02280104  RH  045%=      5-min Rain = 0
KCL1 111548Z 21008KT 23/10 A3024 RMK A01 T02290103  RH  045%=      5-min Rain = 0
KCL1 111549Z 24007KT 23/10 A3024 RMK A01 T02300104  RH  045%=      5-min Rain = 0
KCL1 111550Z 25007KT 23/11 A3024 RMK A01 T02310106  RH  045%=      5-min Rain = 0
KCL1 111551Z 23004KT 23/11 A3024 RMK A01 T02320106  RH  045%=      5-min Rain = 0
KCL1 111552Z 22007KT 23/11 A3024 RMK A01 T02340105  RH  044%=      5-min Rain = 0
KCL1 111553Z 21007KT 23/11 A3024 RMK A01 T02330105  RH  044%=      5-min Rain = 0
KCL1 111554Z 21008KT 23/11 A3024 RMK A01 T02330105  RH  044%=      5-min Rain = 0
KCL1 111555Z 22008KT 23/11 A3024 RMK A01 T02330105  RH  044%=      5-min Rain = 0
KCL1 111556Z 22007KT 23/10 A3024 RMK A01 T02330104  RH  044%=      5-min Rain = 0
KCL1 111557Z 24005KT 23/11 A3024 RMK A01 T02340107  RH  045%=      5-min Rain = 0
KCL1 111558Z 23008KT 24/11 A3024 RMK A01 T02360108  RH  044%=      5-min Rain = 0
KCL1 111559Z 22005KT 24/11 A3024 RMK A01 T02370105  RH  043%=      5-min Rain = 0
KCL1 111600Z 23006KT 24/11 A3024 RMK A01 T02380107  RH  044%=      5-min Rain = 0
KCL1 111601Z 22006KT 24/11 A3024 RMK A01 T02380106  RH  043%=      5-min Rain = 0
KCL1 111602Z 22007KT 24/11 A3024 RMK A01 T02390105  RH  043%=      5-min Rain = 0
KCL1 111603Z 22005KT 24/11 A3024 RMK A01 T02370105  RH  043%=      5-min Rain = 0
KCL1 111604Z 24006KT 24/11 A3024 RMK A01 T02370109  RH  044%=      5-min Rain = 0
KCL1 111605Z 23006KT 24/11 A3024 RMK A01 T02400107  RH  043%=      5-min Rain = 0
KCL1 111606Z 21008KT 24/11 A3024 RMK A01 T02410106  RH  043%=      5-min Rain = 0
KCL1 111607Z 21007KT 24/11 A3024 RMK A01 T02400107  RH  043%=      5-min Rain = 0
KCL1 111608Z 22007KT 24/11 A3024 RMK A01 T02400106  RH  043%=      5-min Rain = 0
KCL1 111609Z 23006KT 24/11 A3024 RMK A01 T02400106  RH  043%=      5-min Rain = 0
KCL1 111610Z 23008KT 24/10 A3024 RMK A01 T02400104  RH  042%=      5-min Rain = 0
KCL1 111611Z 22009KT 24/11 A3024 RMK A01 T02400105  RH  042%=      5-min Rain = 0
KCL1 111612Z 24008KT 24/11 A3024 RMK A01 T02400105  RH  043%=      5-min Rain = 0
KCL1 111613Z 23007KT 24/11 A3024 RMK A01 T02410106  RH  042%=      5-min Rain = 0
KCL1 111614Z 21007KT 24/11 A3024 RMK A01 T02430107  RH  042%=      5-min Rain = 0
KCL1 111615Z 21008KT 24/11 A3024 RMK A01 T02440107  RH  042%=      5-min Rain = 0
KCL1 111616Z 22007KT 24/11 A3024 RMK A01 T02440107  RH  042%=      5-min Rain = 0
KCL1 111617Z 22007KT 24/11 A3024 RMK A01 T02440107  RH  042%=      5-min Rain = 0
KCL1 111618Z 22004KT 24/11 A3024 RMK A01 T02440106  RH  042%=      5-min Rain = 0
KCL1 111619Z 25005KT 24/11 A3024 RMK A01 T02440108  RH  042%=      5-min Rain = 0
KCL1 111620Z 24006KT 25/11 A3024 RMK A01 T02460105  RH  041%=      5-min Rain = 0
KCL1 111621Z 25008KT 25/11 A3024 RMK A01 T02460105  RH  041%=      5-min Rain = 0
KCL1 111622Z 24009KT 25/11 A3024 RMK A01 T02470106  RH  041%=      5-min Rain = 0
KCL1 111623Z 25007KT 25/11 A3024 RMK A01 T02480105  RH  041%=      5-min Rain = 0
KCL1 111624Z 25007KT 25/11 A3024 RMK A01 T02480105  RH  041%=      5-min Rain = 0
KCL1 111625Z 25006KT 25/11 A3024 RMK A01 T02490105  RH  040%=      5-min Rain = 0
KCL1 111626Z 24007KT 25/11 A3024 RMK A01 T02490105  RH  040%=      5-min Rain = 0
KCL1 111627Z 23009KT 25/11 A3024 RMK A01 T02490107  RH  041%=      5-min Rain = 0
KCL1 111628Z 23008KT 25/11 A3024 RMK A01 T02510105  RH  040%=      5-min Rain = 0
KCL1 111629Z 25007KT 25/11 A3024 RMK A01 T02510105  RH  040%=      5-min Rain = 0
KCL1 111630Z 24009KT 25/11 A3024 RMK A01 T02520105  RH  040%=      5-min Rain = 0
KCL1 111631Z 23007KT 25/11 A3024 RMK A01 T02520107  RH  040%=      5-min Rain = 0
KCL1 111632Z 23007KT 25/11 A3024 RMK A01 T02530106  RH  039%=      5-min Rain = 0
KCL1 111633Z 22004KT 25/11 A3023 RMK A01 T02540107  RH  040%=      5-min Rain = 0
KCL1 111634Z 25006KT 25/11 A3023 RMK A01 T02540108  RH  040%=      5-min Rain = 0
KCL1 111635Z 26006KT 26/11 A3023 RMK A01 T02550109  RH  040%=      5-min Rain = 0
KCL1 111636Z 23003KT 26/11 A3023 RMK A01 T02560110  RH  040%=      5-min Rain = 0
KCL1 111637Z 21005KT 26/11 A3023 RMK A01 T02590110  RH  039%=      5-min Rain = 0
KCL1 111638Z 21005KT 26/11 A3023 RMK A01 T02600109  RH  039%=      5-min Rain = 0
KCL1 111639Z 21005KT 26/11 A3023 RMK A01 T02590109  RH  039%=      5-min Rain = 0
KCL1 111640Z 20008KT 26/11 A3023 RMK A01 T02580106  RH  038%=      5-min Rain = 0
KCL1 111641Z 22009KT 26/11 A3023 RMK A01 T02560105  RH  039%=      5-min Rain = 0
KCL1 111642Z 25006KT 26/10 A3023 RMK A01 T02550101  RH  038%=      5-min Rain = 0
KCL1 111643Z 23009KT 25/10 A3023 RMK A01 T02540103  RH  039%=      5-min Rain = 0
KCL1 111644Z 22009KT 25/11 A3023 RMK A01 T02540105  RH  039%=      5-min Rain = 0
KCL1 111645Z 22009KT 26/10 A3023 RMK A01 T02550103  RH  038%=      5-min Rain = 0
KCL1 111646Z 22008KT 26/11 A3023 RMK A01 T02550105  RH  039%=      5-min Rain = 0
KCL1 111647Z 22007KT 26/11 A3023 RMK A01 T02550105  RH  039%=      5-min Rain = 0
KCL1 111648Z 21008KT 26/11 A3023 RMK A01 T02550106  RH  039%=      5-min Rain = 0
KCL1 111649Z 21006KT 26/11 A3023 RMK A01 T02570107  RH  039%=      5-min Rain = 0
KCL1 111650Z 21010KT 26/11 A3023 RMK A01 T02590108  RH  039%=      5-min Rain = 0
KCL1 111651Z 22009KT 26/11 A3023 RMK A01 T02590105  RH  038%=      5-min Rain = 0
KCL1 111652Z 21009KT 26/11 A3023 RMK A01 T02600107  RH  038%=      5-min Rain = 0
KCL1 111653Z 21007KT 26/11 A3023 RMK A01 T02610105  RH  038%=      5-min Rain = 0
KCL1 111654Z 21005KT 26/10 A3023 RMK A01 T02600103  RH  037%=      5-min Rain = 0
KCL1 111655Z 23005KT 26/11 A3023 RMK A01 T02590108  RH  039%=      5-min Rain = 0
KCL1 111656Z 22009KT 26/11 A3023 RMK A01 T02610108  RH  038%=      5-min Rain = 0
KCL1 111657Z 22008KT 26/11 A3023 RMK A01 T02620107  RH  038%=      5-min Rain = 0
KCL1 111658Z 20007KT 26/11 A3023 RMK A01 T02630105  RH  037%=      5-min Rain = 0
KCL1 111659Z 23007KT 26/11 A3023 RMK A01 T02630107  RH  037%=      5-min Rain = 0
KCL1 111700Z 23007KT 26/11 A3023 RMK A01 T02640108  RH  038%=      5-min Rain = 0
KCL1 111701Z 22007KT 27/11 A3023 RMK A01 T02650107  RH  037%=      5-min Rain = 0
KCL1 111702Z 23007KT 27/10 A3023 RMK A01 T02650103  RH  036%=      5-min Rain = 0
KCL1 111703Z 22007KT 26/10 A3023 RMK A01 T02640104  RH  037%=      5-min Rain = 0
KCL1 111704Z 24006KT 26/10 A3023 RMK A01 T02640103  RH  037%=      5-min Rain = 0
KCL1 111705Z 24005KT 26/10 A3023 RMK A01 T02640104  RH  037%=      5-min Rain = 0
KCL1 111706Z 26006KT 26/10 A3023 RMK A01 T02640104  RH  037%=      5-min Rain = 0
KCL1 111707Z 25006KT 27/11 A3023 RMK A01 T02650105  RH  037%=      5-min Rain = 0
KCL1 111708Z 23003KT 27/11 A3023 RMK A01 T02650105  RH  037%=      5-min Rain = 0
KCL1 111709Z 24006KT 26/11 A3023 RMK A01 T02640106  RH  037%=      5-min Rain = 0
KCL1 111710Z 23004KT 27/11 A3023 RMK A01 T02650106  RH  037%=      5-min Rain = 0
KCL1 111711Z 21007KT 27/11 A3023 RMK A01 T02650107  RH  037%=      5-min Rain = 0
KCL1 111712Z 21005KT 27/11 A3023 RMK A01 T02660105  RH  036%=      5-min Rain = 0
KCL1 111713Z 22007KT 27/11 A3023 RMK A01 T02650107  RH  037%=      5-min Rain = 0
KCL1 111714Z 22007KT 27/11 A3023 RMK A01 T02660106  RH  037%=      5-min Rain = 0
KCL1 111715Z 22003KT 27/11 A3023 RMK A01 T02660105  RH  037%=      5-min Rain = 0
KCL1 111716Z 20005KT 27/11 A3023 RMK A01 T02660109  RH  037%=      5-min Rain = 0
KCL1 111717Z 21008KT 27/11 A3023 RMK A01 T02680106  RH  036%=      5-min Rain = 0
KCL1 111718Z 22007KT 27/11 A3023 RMK A01 T02680107  RH  036%=      5-min Rain = 0
KCL1 111719Z 25007KT 27/11 A3023 RMK A01 T02700106  RH  036%=      5-min Rain = 0
KCL1 111720Z 25007KT 27/11 A3023 RMK A01 T02720107  RH  036%=      5-min Rain = 0
KCL1 111721Z 22005KT 27/10 A3023 RMK A01 T02740103  RH  034%=      5-min Rain = 0
KCL1 111722Z 19003KT 27/10 A3023 RMK A01 T02730104  RH  035%=      5-min Rain = 0
KCL1 111723Z 20004KT 27/10 A3023 RMK A01 T02730104  RH  035%=      5-min Rain = 0
KCL1 111724Z 21002KT 27/11 A3023 RMK A01 T02730108  RH  036%=      5-min Rain = 0
KCL1 111725Z 19001KT 27/11 A3023 RMK A01 T02740107  RH  035%=      5-min Rain = 0
KCL1 111726Z 30002KT 28/11 A3023 RMK A01 T02760111  RH  036%=      5-min Rain = 0
KCL1 111727Z 27003KT 28/11 A3023 RMK A01 T02780109  RH  035%=      5-min Rain = 0
KCL1 111728Z 26002KT 28/11 A3023 RMK A01 T02790106  RH  034%=      5-min Rain = 0
KCL1 111729Z 23004KT 28/11 A3023 RMK A01 T02770109  RH  035%=      5-min Rain = 0
KCL1 111730Z 20004KT 28/11 A3023 RMK A01 T02770106  RH  034%=      5-min Rain = 0
KCL1 111731Z 19007KT 28/11 A3023 RMK A01 T02770109  RH  035%=      5-min Rain = 0
KCL1 111732Z 20006KT 28/11 A3023 RMK A01 T02760107  RH  035%=      5-min Rain = 0
KCL1 111733Z 17005KT 27/11 A3023 RMK A01 T02740109  RH  036%=      5-min Rain = 0
KCL1 111734Z 19004KT 27/11 A3023 RMK A01 T02730110  RH  036%=      5-min Rain = 0
KCL1 111735Z 18003KT 27/10 A3023 RMK A01 T02730104  RH  035%=      5-min Rain = 0
KCL1 111736Z 23003KT 27/11 A3023 RMK A01 T02720111  RH  036%=      5-min Rain = 0
KCL1 111737Z 27007KT 28/11 A3023 RMK A01 T02750108  RH  035%=      5-min Rain = 0
KCL1 111738Z 29005KT 28/11 A3023 RMK A01 T02760105  RH  034%=      5-min Rain = 0
KCL1 111739Z 29002KT 28/11 A3022 RMK A01 T02760105  RH  034%=      5-min Rain = 0
KCL1 111740Z 20004KT 28/11 A3022 RMK A01 T02770105  RH  034%=      5-min Rain = 0
KCL1 111741Z 22003KT 28/10 A3022 RMK A01 T02770103  RH  034%=      5-min Rain = 0
KCL1 111742Z 21001KT 28/10 A3022 RMK A01 T02760104  RH  034%=      5-min Rain = 0
KCL1 111743Z 22002KT 28/11 A3022 RMK A01 T02760107  RH  035%=      5-min Rain = 0
KCL1 111744Z 21002KT 28/11 A3022 RMK A01 T02770106  RH  034%=      5-min Rain = 0
KCL1 111745Z 24002KT 28/11 A3022 RMK A01 T02790108  RH  034%=      5-min Rain = 0
KCL1 111746Z 26005KT 28/11 A3023 RMK A01 T02810109  RH  034%=      5-min Rain = 0
KCL1 111747Z 27006KT 28/11 A3022 RMK A01 T02820106  RH  033%=      5-min Rain = 0
KCL1 111748Z 28008KT 28/11 A3023 RMK A01 T02820107  RH  034%=      5-min Rain = 0
KCL1 111749Z 27006KT 28/11 A3023 RMK A01 T02820105  RH  033%=      5-min Rain = 0
KCL1 111750Z 26004KT 28/11 A3022 RMK A01 T02820105  RH  033%=      5-min Rain = 0
KCL1 111751Z 29005KT 28/11 A3022 RMK A01 T02810106  RH  034%=      5-min Rain = 0
KCL1 111752Z 30005KT 28/11 A3022 RMK A01 T02810105  RH  033%=      5-min Rain = 0
KCL1 111753Z 31003KT 28/10 A3022 RMK A01 T02800104  RH  033%=      5-min Rain = 0
KCL1 111754Z 35003KT 28/10 A3022 RMK A01 T02790104  RH  033%=      5-min Rain = 0
KCL1 111755Z 34002KT 28/10 A3022 RMK A01 T02780104  RH  034%=      5-min Rain = 0
KCL1 111756Z 26002KT 28/11 A3022 RMK A01 T02780107  RH  034%=      5-min Rain = 0
KCL1 111757Z 22006KT 28/11 A3022 RMK A01 T02810107  RH  034%=      5-min Rain = 0
KCL1 111758Z 21006KT 28/11 A3022 RMK A01 T02820105  RH  033%=      5-min Rain = 0
KCL1 111759Z 20004KT 28/11 A3022 RMK A01 T02810105  RH  033%=      5-min Rain = 0
KCL1 111800Z 19004KT 28/10 A3022 RMK A01 T02800104  RH  033%=      5-min Rain = 0
KCL1 111801Z 20003KT 28/11 A3022 RMK A01 T02790111  RH  035%=      5-min Rain = 0
KCL1 111802Z 21001KT 28/11 A3022 RMK A01 T02830113  RH  035%=      5-min Rain = 0
KCL1 111803Z 23004KT 29/11 A3022 RMK A01 T02870111  RH  034%=      5-min Rain = 0
KCL1 111804Z 23006KT 29/11 A3022 RMK A01 T02880106  RH  032%=      5-min Rain = 0
KCL1 111805Z 23003KT 29/10 A3022 RMK A01 T02850103  RH  032%=      5-min Rain = 0
KCL1 111806Z 19005KT 28/11 A3022 RMK A01 T02820105  RH  033%=      5-min Rain = 0
KCL1 111807Z 19004KT 28/10 A3022 RMK A01 T02810102  RH  033%=      5-min Rain = 0
KCL1 111808Z 19003KT 28/11 A3022 RMK A01 T02790105  RH  034%=      5-min Rain = 0
KCL1 111809Z 17005KT 28/11 A3022 RMK A01 T02800108  RH  034%=      5-min Rain = 0
KCL1 111810Z 19004KT 28/11 A3022 RMK A01 T02810105  RH  033%=      5-min Rain = 0
KCL1 111811Z 18003KT 28/11 A3022 RMK A01 T02820107  RH  034%=      5-min Rain = 0
KCL1 111812Z 19003KT 28/11 A3022 RMK A01 T02830105  RH  033%=      5-min Rain = 0
KCL1 111813Z 18003KT 28/11 A3022 RMK A01 T02830106  RH  033%=      5-min Rain = 0
KCL1 111814Z 18002KT 28/10 A3022 RMK A01 T02830103  RH  033%=      5-min Rain = 0
KCL1 111815Z 20002KT 28/11 A3022 RMK A01 T02830106  RH  033%=      5-min Rain = 0
KCL1 111816Z 27002KT 28/11 A3022 RMK A01 T02840108  RH  033%=      5-min Rain = 0
KCL1 111817Z 28003KT 29/10 A3022 RMK A01 T02860104  RH  032%=      5-min Rain = 0
KCL1 111818Z 26001KT 29/11 A3021 RMK A01 T02860106  RH  033%=      5-min Rain = 0
KCL1 111819Z 31001KT 29/11 A3021 RMK A01 T02870111  RH  033%=      5-min Rain = 0
KCL1 111820Z 32005KT 29/11 A3021 RMK A01 T02890109  RH  033%=      5-min Rain = 0
KCL1 111821Z 34003KT 29/11 A3021 RMK A01 T02900110  RH  033%=      5-min Rain = 0
KCL1 111822Z 00002KT 29/10 A3021 RMK A01 T02910104  RH  031%=      5-min Rain = 0
KCL1 111823Z 03002KT 29/11 A3021 RMK A01 T02880107  RH  033%=      5-min Rain = 0
KCL1 111824Z 00001KT 29/10 A3021 RMK A01 T02870104  RH  032%=      5-min Rain = 0
KCL1 111825Z 06001KT 29/11 A3021 RMK A01 T02850106  RH  033%=      5-min Rain = 0
KCL1 111826Z 01002KT 29/11 A3021 RMK A01 T02850105  RH  032%=      5-min Rain = 0
KCL1 111827Z 01001KT 29/11 A3021 RMK A01 T02860105  RH  033%=      5-min Rain = 0
KCL1 111828Z 35003KT 29/11 A3021 RMK A01 T02860107  RH  033%=      5-min Rain = 0
KCL1 111829Z 35004KT 29/11 A3021 RMK A01 T02880108  RH  033%=      5-min Rain = 0
KCL1 111830Z 30002KT 29/11 A3021 RMK A01 T02900108  RH  032%=      5-min Rain = 0
KCL1 111831Z 22003KT 29/11 A3021 RMK A01 T02910106  RH  032%=      5-min Rain = 0
KCL1 111832Z 20003KT 29/11 A3021 RMK A01 T02920105  RH  031%=      5-min Rain = 0
KCL1 111833Z 26002KT 29/11 A3021 RMK A01 T02900105  RH  032%=      5-min Rain = 0
KCL1 111834Z 30001KT 29/11 A302 RMK A01 T02890110  RH  033%=      5-min Rain = 0
KCL1 111835Z 20004KT 29/11 A302 RMK A01 T02910113  RH  033%=      5-min Rain = 0
KCL1 111836Z 20006KT 29/11 A302 RMK A01 T02940107  RH  031%=      5-min Rain = 0
KCL1 111837Z 22003KT 29/11 A302 RMK A01 T02930107  RH  032%=      5-min Rain = 0
KCL1 111838Z 22005KT 29/11 A302 RMK A01 T02930108  RH  032%=      5-min Rain = 0
KCL1 111839Z 24004KT 29/11 A302 RMK A01 T02920105  RH  031%=      5-min Rain = 0
KCL1 111840Z 25002KT 29/10 A302 RMK A01 T02890104  RH  032%=      5-min Rain = 0
KCL1 111841Z 19004KT 29/11 A302 RMK A01 T02880108  RH  033%=      5-min Rain = 0
KCL1 111842Z 20004KT 29/11 A302 RMK A01 T02890107  RH  032%=      5-min Rain = 0
KCL1 111843Z 22002KT 29/11 A302 RMK A01 T02900105  RH  032%=      5-min Rain = 0
KCL1 111844Z 20002KT 29/11 A302 RMK A01 T02910107  RH  032%=      5-min Rain = 0
KCL1 111845Z 24003KT 29/11 A302 RMK A01 T02910106  RH  032%=      5-min Rain = 0
KCL1 111846Z 25004KT 29/11 A302 RMK A01 T02910109  RH  032%=      5-min Rain = 0
KCL1 111847Z 25004KT 29/11 A302 RMK A01 T02940111  RH  032%=      5-min Rain = 0
KCL1 111848Z 20003KT 30/11 A302 RMK A01 T02960110  RH  032%=      5-min Rain = 0
KCL1 111849Z 17005KT 30/11 A302 RMK A01 T02970110  RH  031%=      5-min Rain = 0
KCL1 111850Z 16006KT 30/11 A302 RMK A01 T02960108  RH  031%=      5-min Rain = 0
KCL1 111851Z 15003KT 29/11 A302 RMK A01 T02930106  RH  031%=      5-min Rain = 0
KCL1 111852Z 15003KT 29/11 A302 RMK A01 T02920114  RH  033%=      5-min Rain = 0
KCL1 111853Z 16004KT 29/12 A302 RMK A01 T02930115  RH  033%=      5-min Rain = 0
KCL1 111854Z 14003KT 30/11 A302 RMK A01 T02950109  RH  032%=      5-min Rain = 0
KCL1 111855Z 14002KT 29/11 A302 RMK A01 T02940112  RH  032%=      5-min Rain = 0
KCL1 111856Z 19003KT 29/11 A3019 RMK A01 T02940107  RH  031%=      5-min Rain = 0
KCL1 111857Z 19006KT 29/11 A3019 RMK A01 T02940109  RH  032%=      5-min Rain = 0
KCL1 111858Z 17004KT 30/11 A3019 RMK A01 T02950111  RH  032%=      5-min Rain = 0
KCL1 111859Z 15003KT 30/12 A3019 RMK A01 T02980116  RH  032%=      5-min Rain = 0
KCL1 111900Z 16006KT 30/12 A3019 RMK A01 T03000117  RH  032%=      5-min Rain = 0
KCL1 111901Z 16006KT 30/11 A3019 RMK A01 T03000113  RH  031%=      5-min Rain = 0
KCL1 111902Z 16006KT 30/11 A3019 RMK A01 T02990111  RH  031%=      5-min Rain = 0
KCL1 111903Z 19004KT 30/11 A3019 RMK A01 T02970107  RH  031%=      5-min Rain = 0
KCL1 111904Z 17005KT 30/11 A3019 RMK A01 T02950106  RH  031%=      5-min Rain = 0
KCL1 111905Z 14003KT 29/11 A3019 RMK A01 T02940106  RH  031%=      5-min Rain = 0
KCL1 111906Z 14002KT 29/11 A3019 RMK A01 T02930109  RH  032%=      5-min Rain = 0
KCL1 111907Z 14005KT 29/11 A3019 RMK A01 T02940110  RH  032%=      5-min Rain = 0
KCL1 111908Z 10006KT 30/11 A3019 RMK A01 T02960113  RH  032%=      5-min Rain = 0
KCL1 111909Z 08006KT 30/11 A3019 RMK A01 T02980112  RH  032%=      5-min Rain = 0
KCL1 111910Z 09005KT 30/11 A3019 RMK A01 T02950108  RH  031%=      5-min Rain = 0
KCL1 111911Z 06005KT 29/11 A3019 RMK A01 T02920106  RH  031%=      5-min Rain = 0
KCL1 111912Z 07003KT 29/11 A3019 RMK A01 T02910109  RH  032%=      5-min Rain = 0
KCL1 111913Z 21006KT 29/11 A3019 RMK A01 T02920110  RH  032%=      5-min Rain = 0
KCL1 111914Z 18002KT 30/11 A3019 RMK A01 T02980107  RH  031%=      5-min Rain = 0
KCL1 111915Z 16004KT 30/11 A3019 RMK A01 T03000107  RH  030%=      5-min Rain = 0
KCL1 111916Z 16006KT 30/11 A3019 RMK A01 T03000108  RH  031%=      5-min Rain = 0
KCL1 111917Z 17005KT 30/11 A3019 RMK A01 T02980107  RH  031%=      5-min Rain = 0
KCL1 111918Z 16003KT 30/11 A3019 RMK A01 T02970113  RH  032%=      5-min Rain = 0
KCL1 111919Z 18003KT 30/11 A3019 RMK A01 T02980106  RH  031%=      5-min Rain = 0
KCL1 111920Z 20001KT 30/11 A3019 RMK A01 T02980106  RH  031%=      5-min Rain = 0
KCL1 111921Z 29001KT 30/10 A3019 RMK A01 T02980104  RH  030%=      5-min Rain = 0
KCL1 111922Z 29002KT 30/11 A3019 RMK A01 T02980108  RH  031%=      5-min Rain = 0
KCL1 111923Z 30001KT 30/11 A3019 RMK A01 T02980106  RH  030%=      5-min Rain = 0
KCL1 111924Z 22001KT 30/11 A3019 RMK A01 T03000110  RH  031%=      5-min Rain = 0
KCL1 111925Z 24002KT 30/11 A3019 RMK A01 T03010106  RH  030%=      5-min Rain = 0
KCL1 111926Z 17001KT 30/11 A3019 RMK A01 T03010107  RH  030%=      5-min Rain = 0
KCL1 111927Z 15001KT 30/11 A3019 RMK A01 T03020109  RH  030%=      5-min Rain = 0
KCL1 111928Z 09002KT 30/11 A3018 RMK A01 T03020109  RH  030%=      5-min Rain = 0
KCL1 111929Z 10002KT 30/11 A3018 RMK A01 T03000108  RH  030%=      5-min Rain = 0
KCL1 111930Z 11003KT 30/12 A3018 RMK A01 T02990115  RH  032%=      5-min Rain = 0
KCL1 111931Z 12006KT 30/11 A3018 RMK A01 T02990111  RH  031%=      5-min Rain = 0
KCL1 111932Z 11003KT 30/10 A3018 RMK A01 T02990103  RH  030%=      5-min Rain = 0
KCL1 111933Z 09004KT 30/11 A3018 RMK A01 T02960107  RH  031%=      5-min Rain = 0
KCL1 111934Z 10005KT 30/11 A3018 RMK A01 T02950109  RH  032%=      5-min Rain = 0
KCL1 111935Z 14005KT 30/11 A3018 RMK A01 T02950113  RH  032%=      5-min Rain = 0
KCL1 111936Z 15003KT 30/11 A3018 RMK A01 T02970105  RH  030%=      5-min Rain = 0
KCL1 111937Z 16004KT 30/11 A3018 RMK A01 T02980108  RH  031%=      5-min Rain = 0
KCL1 111938Z 15004KT 30/11 A3018 RMK A01 T02990108  RH  031%=      5-min Rain = 0
KCL1 111939Z 16004KT 30/11 A3018 RMK A01 T03000105  RH  030%=      5-min Rain = 0
KCL1 111940Z 14001KT 30/10 A3018 RMK A01 T02990102  RH  029%=      5-min Rain = 0
KCL1 111941Z 36001KT 30/10 A3018 RMK A01 T02980101  RH  029%=      5-min Rain = 0
KCL1 111942Z 01004KT 30/11 A3018 RMK A01 T02970105  RH  030%=      5-min Rain = 0
KCL1 111943Z 10004KT 30/11 A3018 RMK A01 T02970108  RH  031%=      5-min Rain = 0
KCL1 111944Z 13005KT 30/11 A3018 RMK A01 T02980110  RH  031%=      5-min Rain = 0
KCL1 111945Z 10003KT 30/12 A3018 RMK A01 T03000116  RH  032%=      5-min Rain = 0
KCL1 111946Z 08005KT 30/11 A3018 RMK A01 T03020114  RH  031%=      5-min Rain = 0
KCL1 111947Z 09007KT 30/11 A3018 RMK A01 T03020109  RH  030%=      5-min Rain = 0
KCL1 111948Z 05006KT 30/11 A3017 RMK A01 T03020112  RH  031%=      5-min Rain = 0
KCL1 111949Z 04005KT 30/10 A3018 RMK A01 T03000104  RH  030%=      5-min Rain = 0
KCL1 111950Z 03003KT 30/10 A3017 RMK A01 T02980103  RH  030%=      5-min Rain = 0
KCL1 111951Z 05003KT 30/10 A3017 RMK A01 T02960104  RH  030%=      5-min Rain = 0
KCL1 111952Z 03003KT 30/11 A3017 RMK A01 T02960106  RH  031%=      5-min Rain = 0
KCL1 111953Z 04004KT 30/11 A3017 RMK A01 T02970107  RH  031%=      5-min Rain = 0
KCL1 111954Z 02004KT 30/11 A3017 RMK A01 T02980105  RH  030%=      5-min Rain = 0
KCL1 111955Z 04002KT 30/11 A3017 RMK A01 T02990106  RH  030%=      5-min Rain = 0
KCL1 111956Z 02002KT 30/10 A3017 RMK A01 T02990102  RH  029%=      5-min Rain = 0
KCL1 111957Z 04004KT 30/11 A3017 RMK A01 T02990107  RH  030%=      5-min Rain = 0
KCL1 111958Z 03004KT 30/11 A3017 RMK A01 T03000108  RH  030%=      5-min Rain = 0
KCL1 111959Z 02004KT 30/11 A3017 RMK A01 T03000105  RH  030%=      5-min Rain = 0
KCL1 112000Z 35004KT 30/10 A3017 RMK A01 T03010104  RH  030%=      5-min Rain = 0
KCL1 112001Z 01003KT 30/10 A3017 RMK A01 T03000101  RH  029%=      5-min Rain = 0
KCL1 112002Z 04002KT 30/11 A3017 RMK A01 T03000105  RH  030%=      5-min Rain = 0
KCL1 112003Z 11001KT 30/11 A3017 RMK A01 T03010112  RH  031%=      5-min Rain = 0
KCL1 112004Z 12001KT 30/11 A3017 RMK A01 T03030108  RH  030%=      5-min Rain = 0
KCL1 112005Z 11001KT 31/11 A3017 RMK A01 T03050108  RH  030%=      5-min Rain = 0
KCL1 112006Z 14006KT 31/11 A3017 RMK A01 T03060110  RH  030%=      5-min Rain = 0
KCL1 112007Z 14005KT 31/11 A3017 RMK A01 T03070107  RH  029%=      5-min Rain = 0
KCL1 112008Z 16006KT 31/11 A3017 RMK A01 T03080106  RH  029%=      5-min Rain = 0
KCL1 112009Z 15007KT 31/10 A3017 RMK A01 T03070104  RH  029%=      5-min Rain = 0
KCL1 112010Z 14006KT 31/10 A3016 RMK A01 T03050101  RH  028%=      5-min Rain = 0
KCL1 112011Z 14004KT 30/10 A3016 RMK A01 T03030104  RH  029%=      5-min Rain = 0
KCL1 112012Z 15004KT 30/10 A3016 RMK A01 T03030102  RH  029%=      5-min Rain = 0
KCL1 112013Z 12002KT 30/10 A3016 RMK A01 T03030101  RH  029%=      5-min Rain = 0
KCL1 112014Z 14004KT 30/10 A3016 RMK A01 T03020104  RH  029%=      5-min Rain = 0
KCL1 112015Z 17006KT 30/10 A3016 RMK A01 T03030104  RH  029%=      5-min Rain = 0
KCL1 112016Z 18005KT 30/10 A3016 RMK A01 T03040102  RH  029%=      5-min Rain = 0
KCL1 112017Z 19003KT 30/10 A3016 RMK A01 T03030099  RH  028%=      5-min Rain = 0
KCL1 112018Z 19005KT 30/11 A3016 RMK A01 T03020105  RH  030%=      5-min Rain = 0
KCL1 112019Z 17003KT 30/10 A3016 RMK A01 T03010100  RH  029%=      5-min Rain = 0
KCL1 112020Z 18001KT 30/10 A3016 RMK A01 T03010101  RH  029%=      5-min Rain = 0
KCL1 112021Z 26001KT 30/11 A3016 RMK A01 T03020105  RH  030%=      5-min Rain = 0
KCL1 112022Z 34000KT 30/11 A3016 RMK A01 T03030110  RH  030%=      5-min Rain = 0
KCL1 112023Z 31001KT 31/11 A3016 RMK A01 T03050109  RH  030%=      5-min Rain = 0
KCL1 112024Z 29002KT 31/10 A3016 RMK A01 T03070102  RH  028%=      5-min Rain = 0
KCL1 112025Z 32002KT 31/10 A3016 RMK A01 T03060101  RH  028%=      5-min Rain = 0
KCL1 112026Z 32001KT 31/11 A3016 RMK A01 T03050109  RH  030%=      5-min Rain = 0
KCL1 112027Z 34003KT 31/11 A3016 RMK A01 T03070109  RH  030%=      5-min Rain = 0
KCL1 112028Z 34002KT 31/11 A3016 RMK A01 T03090105  RH  029%=      5-min Rain = 0
KCL1 112029Z 03002KT 31/11 A3015 RMK A01 T03090109  RH  029%=      5-min Rain = 0
KCL1 112030Z 01003KT 31/11 A3015 RMK A01 T03090106  RH  029%=      5-min Rain = 0
KCL1 112031Z 02003KT 31/11 A3015 RMK A01 T03070106  RH  029%=      5-min Rain = 0
KCL1 112032Z 35002KT 31/11 A3015 RMK A01 T03070109  RH  030%=      5-min Rain = 0
KCL1 112033Z 03001KT 31/11 A3015 RMK A01 T03080109  RH  029%=      5-min Rain = 0
KCL1 112034Z 05002KT 31/11 A3015 RMK A01 T03100112  RH  030%=      5-min Rain = 0
KCL1 112035Z 03004KT 31/11 A3015 RMK A01 T03100113  RH  030%=      5-min Rain = 0
KCL1 112036Z 04004KT 31/11 A3015 RMK A01 T03090109  RH  029%=      5-min Rain = 0
KCL1 112037Z 10004KT 31/11 A3015 RMK A01 T03080113  RH  030%=      5-min Rain = 0
KCL1 112038Z 09006KT 31/12 A3015 RMK A01 T03080117  RH  031%=      5-min Rain = 0
KCL1 112039Z 11007KT 31/11 A3015 RMK A01 T03100114  RH  030%=      5-min Rain = 0
KCL1 112040Z 14004KT 31/11 A3015 RMK A01 T03100111  RH  029%=      5-min Rain = 0
KCL1 112041Z 14002KT 31/11 A3015 RMK A01 T03100112  RH  030%=      5-min Rain = 0
KCL1 112042Z 13004KT 31/12 A3015 RMK A01 T03110115  RH  030%=      5-min Rain = 0
KCL1 112043Z 13004KT 31/11 A3015 RMK A01 T03120109  RH  029%=      5-min Rain = 0
KCL1 112044Z 07001KT 31/11 A3015 RMK A01 T03100106  RH  028%=      5-min Rain = 0
KCL1 112045Z 13000KT 31/10 A3015 RMK A01 T03090104  RH  028%=      5-min Rain = 0
KCL1 112046Z 18003KT 31/11 A3015 RMK A01 T03080107  RH  029%=      5-min Rain = 0
KCL1 112047Z 12006KT 31/11 A3015 RMK A01 T03090112  RH  030%=      5-min Rain = 0
KCL1 112048Z 13008KT 31/11 A3015 RMK A01 T03100113  RH  030%=      5-min Rain = 0
KCL1 112049Z 13006KT 31/11 A3015 RMK A01 T03100111  RH  029%=      5-min Rain = 0
KCL1 112050Z 13005KT 31/11 A3015 RMK A01 T03090108  RH  029%=      5-min Rain = 0
KCL1 112051Z 15003KT 31/11 A3015 RMK A01 T03070107  RH  029%=      5-min Rain = 0
KCL1 112052Z 14004KT 31/11 A3015 RMK A01 T03070110  RH  030%=      5-min Rain = 0
KCL1 112053Z 12007KT 31/12 A3015 RMK A01 T03070117  RH  031%=      5-min Rain = 0
KCL1 112054Z 13008KT 31/11 A3015 RMK A01 T03080111  RH  030%=      5-min Rain = 0
KCL1 112055Z 14005KT 31/11 A3015 RMK A01 T03080110  RH  030%=      5-min Rain = 0
KCL1 112056Z 13006KT 31/11 A3015 RMK A01 T03070108  RH  029%=      5-min Rain = 0
KCL1 112057Z 14009KT 31/11 A3015 RMK A01 T03060111  RH  030%=      5-min Rain = 0
KCL1 112058Z 14005KT 31/11 A3015 RMK A01 T03060111  RH  030%=      5-min Rain = 0
KCL1 112059Z 13004KT 31/11 A3015 RMK A01 T03070113  RH  030%=      5-min Rain = 0
KCL1 112100Z 10004KT 31/11 A3015 RMK A01 T03080112  RH  030%=      5-min Rain = 0
KCL1 112101Z 07002KT 31/11 A3015 RMK A01 T03070105  RH  029%=      5-min Rain = 0
KCL1 112102Z 11001KT 31/11 A3015 RMK A01 T03050107  RH  029%=      5-min Rain = 0
KCL1 112103Z 11003KT 30/12 A3014 RMK A01 T03040116  RH  031%=      5-min Rain = 0
KCL1 112104Z 08004KT 31/12 A3014 RMK A01 T03070117  RH  031%=      5-min Rain = 0
KCL1 112105Z 09005KT 31/12 A3014 RMK A01 T03080118  RH  031%=      5-min Rain = 0
KCL1 112106Z 09006KT 31/11 A3014 RMK A01 T03090111  RH  030%=      5-min Rain = 0
KCL1 112107Z 09004KT 31/11 A3014 RMK A01 T03070107  RH  029%=      5-min Rain = 0
KCL1 112108Z 08004KT 31/11 A3014 RMK A01 T03050110  RH  030%=      5-min Rain = 0
KCL1 112109Z 08004KT 30/11 A3014 RMK A01 T03040106  RH  029%=      5-min Rain = 0
KCL1 112110Z 09005KT 30/11 A3014 RMK A01 T03030110  RH  030%=      5-min Rain = 0
KCL1 112111Z 08004KT 30/11 A3014 RMK A01 T03030109  RH  030%=      5-min Rain = 0
KCL1 112112Z 06005KT 30/12 A3014 RMK A01 T03040116  RH  031%=      5-min Rain = 0
KCL1 112113Z 10008KT 31/11 A3014 RMK A01 T03060113  RH  030%=      5-min Rain = 0
KCL1 112114Z 11008KT 31/11 A3014 RMK A01 T03060107  RH  029%=      5-min Rain = 0
KCL1 112115Z 14005KT 31/11 A3014 RMK A01 T03060109  RH  030%=      5-min Rain = 0
KCL1 112116Z 10003KT 31/10 A3014 RMK A01 T03050103  RH  029%=      5-min Rain = 0
KCL1 112117Z 07003KT 30/11 A3014 RMK A01 T03040107  RH  030%=      5-min Rain = 0
KCL1 112118Z 04002KT 30/11 A3014 RMK A01 T03030109  RH  030%=      5-min Rain = 0
KCL1 112119Z 09002KT 30/11 A3014 RMK A01 T03040107  RH  030%=      5-min Rain = 0
KCL1 112120Z 10005KT 30/11 A3014 RMK A01 T03040112  RH  031%=      5-min Rain = 0
KCL1 112121Z 10006KT 31/11 A3014 RMK A01 T03060111  RH  030%=      5-min Rain = 0
KCL1 112122Z 12007KT 31/11 A3014 RMK A01 T03070110  RH  030%=      5-min Rain = 0
KCL1 112123Z 12004KT 31/11 A3014 RMK A01 T03070108  RH  029%=      5-min Rain = 0
KCL1 112124Z 14003KT 31/11 A3014 RMK A01 T03070106  RH  029%=      5-min Rain = 0
KCL1 112125Z 18002KT 31/10 A3014 RMK A01 T03060104  RH  029%=      5-min Rain = 0
KCL1 112126Z 35001KT 31/10 A3014 RMK A01 T03060102  RH  028%=      5-min Rain = 0
KCL1 112127Z 34002KT 31/10 A3014 RMK A01 T03060102  RH  028%=      5-min Rain = 0
KCL1 112128Z 32002KT 31/11 A3014 RMK A01 T03060109  RH  030%=      5-min Rain = 0
KCL1 112129Z 00004KT 31/11 A3014 RMK A01 T03070106  RH  029%=      5-min Rain = 0
KCL1 112130Z 05003KT 31/11 A3014 RMK A01 T03070105  RH  029%=      5-min Rain = 0
KCL1 112131Z 06006KT 31/11 A3014 RMK A01 T03060112  RH  030%=      5-min Rain = 0
KCL1 112132Z 07005KT 31/11 A3014 RMK A01 T03060112  RH  030%=      5-min Rain = 0
KCL1 112133Z 07005KT 31/11 A3014 RMK A01 T03060110  RH  030%=      5-min Rain = 0
KCL1 112134Z 07006KT 31/11 A3014 RMK A01 T03050111  RH  030%=      5-min Rain = 0
KCL1 112135Z 07006KT 30/11 A3013 RMK A01 T03040108  RH  030%=      5-min Rain = 0
KCL1 112136Z 06005KT 30/11 A3013 RMK A01 T03030105  RH  029%=      5-min Rain = 0
KCL1 112137Z 06004KT 30/11 A3013 RMK A01 T03020106  RH  030%=      5-min Rain = 0
KCL1 112138Z 06002KT 30/10 A3013 RMK A01 T03020103  RH  029%=      5-min Rain = 0
KCL1 112139Z 01002KT 30/10 A3013 RMK A01 T03010103  RH  029%=      5-min Rain = 0
KCL1 112140Z 06002KT 30/10 A3013 RMK A01 T03010100  RH  029%=      5-min Rain = 0
KCL1 112141Z 06006KT 30/11 A3013 RMK A01 T03020110  RH  031%=      5-min Rain = 0
KCL1 112142Z 07005KT 30/11 A3013 RMK A01 T03030108  RH  030%=      5-min Rain = 0
KCL1 112143Z 12006KT 30/11 A3013 RMK A01 T03030109  RH  030%=      5-min Rain = 0
KCL1 112144Z 11006KT 30/11 A3013 RMK A01 T03040107  RH  029%=      5-min Rain = 0
KCL1 112145Z 08006KT 31/11 A3013 RMK A01 T03050113  RH  031%=      5-min Rain = 0
KCL1 112146Z 07005KT 31/11 A3013 RMK A01 T03060108  RH  030%=      5-min Rain = 0
KCL1 112147Z 08004KT 31/11 A3013 RMK A01 T03050107  RH  029%=      5-min Rain = 0
KCL1 112148Z 07004KT 30/11 A3013 RMK A01 T03040111  RH  030%=      5-min Rain = 0
KCL1 112149Z 08003KT 30/11 A3013 RMK A01 T03040108  RH  030%=      5-min Rain = 0
KCL1 112150Z 10001KT 30/11 A3013 RMK A01 T03040107  RH  030%=      5-min Rain = 0
KCL1 112151Z 15002KT 31/11 A3013 RMK A01 T03050109  RH  030%=      5-min Rain = 0
KCL1 112152Z 12005KT 31/11 A3013 RMK A01 T03070107  RH  029%=      5-min Rain = 0
KCL1 112153Z 10008KT 31/11 A3013 RMK A01 T03070108  RH  029%=      5-min Rain = 0
KCL1 112154Z 11006KT 31/11 A3013 RMK A01 T03070109  RH  030%=      5-min Rain = 0
KCL1 112155Z 10006KT 31/11 A3013 RMK A01 T03060114  RH  031%=      5-min Rain = 0
KCL1 112156Z 09008KT 31/11 A3013 RMK A01 T03070108  RH  029%=      5-min Rain = 0
KCL1 112157Z 09006KT 31/11 A3013 RMK A01 T03060105  RH  029%=      5-min Rain = 0
KCL1 112158Z 08006KT 30/11 A3013 RMK A01 T03040109  RH  030%=      5-min Rain = 0
KCL1 112159Z 08005KT 30/11 A3013 RMK A01 T03040110  RH  030%=      5-min Rain = 0
KCL1 112200Z 07006KT 31/11 A3013 RMK A01 T03050113  RH  031%=      5-min Rain = 0
KCL1 112201Z 08006KT 31/11 A3013 RMK A01 T03050110  RH  030%=      5-min Rain = 0
KCL1 112202Z 05005KT 31/11 A3013 RMK A01 T03050110  RH  030%=      5-min Rain = 0
KCL1 112203Z 07005KT 31/10 A3013 RMK A01 T03050104  RH  029%=      5-min Rain = 0
KCL1 112204Z 09004KT 30/11 A3013 RMK A01 T03030107  RH  030%=      5-min Rain = 0
KCL1 112205Z 11006KT 30/11 A3013 RMK A01 T03030112  RH  031%=      5-min Rain = 0
KCL1 112206Z 10005KT 30/11 A3013 RMK A01 T03040107  RH  030%=      5-min Rain = 0
KCL1 112207Z 09003KT 30/11 A3013 RMK A01 T03040109  RH  030%=      5-min Rain = 0
KCL1 112208Z 08001KT 31/10 A3013 RMK A01 T03050104  RH  029%=      5-min Rain = 0
KCL1 112209Z 11000KT 31/10 A3013 RMK A01 T03050103  RH  029%=      5-min Rain = 0
KCL1 112210Z 29000KT 31/10 A3013 RMK A01 T03050103  RH  029%=      5-min Rain = 0
KCL1 112211Z 10002KT 31/11 A3013 RMK A01 T03060107  RH  029%=      5-min Rain = 0
KCL1 112212Z 14003KT 31/11 A3013 RMK A01 T03060108  RH  029%=      5-min Rain = 0
KCL1 112213Z 13006KT 31/11 A3013 RMK A01 T03060109  RH  030%=      5-min Rain = 0
KCL1 112214Z 14006KT 31/11 A3013 RMK A01 T03070108  RH  029%=      5-min Rain = 0
KCL1 112215Z 13005KT 31/11 A3013 RMK A01 T03070109  RH  030%=      5-min Rain = 0
KCL1 112216Z 12004KT 31/11 A3013 RMK A01 T03070108  RH  029%=      5-min Rain = 0
KCL1 112217Z 12004KT 31/11 A3013 RMK A01 T03070113  RH  030%=      5-min Rain = 0
KCL1 112218Z 12005KT 31/11 A3013 RMK A01 T03080111  RH  030%=      5-min Rain = 0
KCL1 112219Z 11005KT 31/11 A3013 RMK A01 T03080107  RH  029%=      5-min Rain = 0
KCL1 112220Z 14004KT 31/11 A3013 RMK A01 T03080109  RH  029%=      5-min Rain = 0
KCL1 112221Z 12002KT 31/11 A3012 RMK A01 T03070106  RH  029%=      5-min Rain = 0
KCL1 112222Z 05003KT 31/11 A3012 RMK A01 T03070110  RH  030%=      5-min Rain = 0
KCL1 112223Z 08003KT 31/11 A3012 RMK A01 T03070109  RH  029%=      5-min Rain = 0
KCL1 112224Z 11005KT 31/12 A3012 RMK A01 T03060115  RH  031%=      5-min Rain = 0
KCL1 112225Z 11007KT 31/12 A3012 RMK A01 T03060116  RH  031%=      5-min Rain = 0
KCL1 112226Z 10009KT 31/11 A3012 RMK A01 T03070114  RH  030%=      5-min Rain = 0
KCL1 112227Z 10007KT 31/11 A3012 RMK A01 T03060111  RH  030%=      5-min Rain = 0
KCL1 112228Z 09008KT 31/11 A3012 RMK A01 T03050111  RH  030%=      5-min Rain = 0
KCL1 112229Z 10006KT 30/11 A3012 RMK A01 T03040109  RH  030%=      5-min Rain = 0
KCL1 112230Z 08006KT 30/11 A3012 RMK A01 T03030111  RH  031%=      5-min Rain = 0
KCL1 112231Z 07006KT 30/11 A3012 RMK A01 T03030111  RH  031%=      5-min Rain = 0
KCL1 112232Z 08009KT 30/11 A3012 RMK A01 T03020114  RH  031%=      5-min Rain = 0
KCL1 112233Z 09008KT 30/11 A3012 RMK A01 T03020112  RH  031%=      5-min Rain = 0
KCL1 112234Z 10005KT 30/11 A3012 RMK A01 T03020111  RH  031%=      5-min Rain = 0
KCL1 112235Z 08007KT 30/12 A3012 RMK A01 T03020115  RH  032%=      5-min Rain = 0
KCL1 112236Z 07007KT 30/12 A3012 RMK A01 T03020115  RH  032%=      5-min Rain = 0
KCL1 112237Z 06005KT 30/11 A3012 RMK A01 T03020114  RH  031%=      5-min Rain = 0
KCL1 112238Z 07004KT 30/11 A3012 RMK A01 T03020111  RH  031%=      5-min Rain = 0
KCL1 112239Z 06002KT 30/12 A3012 RMK A01 T03020116  RH  032%=      5-min Rain = 0
KCL1 112240Z 13004KT 30/12 A3012 RMK A01 T03030117  RH  032%=      5-min Rain = 0
KCL1 112241Z 12007KT 30/12 A3012 RMK A01 T03040115  RH  031%=      5-min Rain = 0
KCL1 112242Z 10006KT 31/12 A3012 RMK A01 T03050119  RH  032%=      5-min Rain = 0
KCL1 112243Z 10010KT 31/12 A3012 RMK A01 T03050119  RH  032%=      5-min Rain = 0
KCL1 112244Z 11008KT 30/12 A3012 RMK A01 T03040118  RH  032%=      5-min Rain = 0
KCL1 112245Z 11007KT 30/12 A3012 RMK A01 T03030120  RH  032%=      5-min Rain = 0
KCL1 112246Z 11009KT 30/12 A3012 RMK A01 T03030119  RH  032%=      5-min Rain = 0
KCL1 112247Z 10008KT 30/12 A3012 RMK A01 T03030119  RH  032%=      5-min Rain = 0
KCL1 112248Z 11009KT 30/12 A3012 RMK A01 T03020120  RH  033%=      5-min Rain = 0
KCL1 112249Z 11007KT 30/12 A3012 RMK A01 T03010116  RH  032%=      5-min Rain = 0
KCL1 112250Z 10010KT 30/12 A3012 RMK A01 T03010117  RH  032%=      5-min Rain = 0
KCL1 112251Z 10009KT 30/12 A3012 RMK A01 T03000119  RH  033%=      5-min Rain = 0
KCL1 112252Z 09010KT 30/12 A3012 RMK A01 T03000117  RH  032%=      5-min Rain = 0
KCL1 112253Z 10010KT 30/12 A3012 RMK A01 T03000118  RH  033%=      5-min Rain = 0
KCL1 112254Z 10008KT 30/12 A3012 RMK A01 T02990118  RH  033%=      5-min Rain = 0
KCL1 112255Z 10008KT 30/12 A3012 RMK A01 T02990119  RH  033%=      5-min Rain = 0
KCL1 112256Z 10008KT 30/12 A3012 RMK A01 T02990118  RH  033%=      5-min Rain = 0
KCL1 112257Z 10008KT 30/12 A3012 RMK A01 T03000115  RH  032%=      5-min Rain = 0
KCL1 112258Z 10010KT 30/12 A3012 RMK A01 T02990117  RH  032%=      5-min Rain = 0
KCL1 112259Z 10009KT 30/12 A3012 RMK A01 T02980116  RH  033%=      5-min Rain = 0
KCL1 112300Z 10010KT 30/12 A3012 RMK A01 T02980115  RH  032%=      5-min Rain = 0
KCL1 112301Z 10007KT 30/11 A3012 RMK A01 T02970112  RH  032%=      5-min Rain = 0
KCL1 112302Z 09007KT 30/12 A3012 RMK A01 T02970117  RH  033%=      5-min Rain = 0
KCL1 112303Z 09008KT 30/12 A3012 RMK A01 T02970118  RH  033%=      5-min Rain = 0
KCL1 112304Z 10008KT 30/12 A3012 RMK A01 T02980121  RH  034%=      5-min Rain = 0
KCL1 112305Z 08008KT 30/12 A3012 RMK A01 T02980117  RH  033%=      5-min Rain = 0
KCL1 112306Z 11007KT 30/12 A3012 RMK A01 T02980119  RH  033%=      5-min Rain = 0
KCL1 112307Z 11006KT 30/12 A3012 RMK A01 T02980118  RH  033%=      5-min Rain = 0
KCL1 112308Z 11006KT 30/12 A3012 RMK A01 T02980118  RH  033%=      5-min Rain = 0
KCL1 112309Z 10005KT 30/12 A3012 RMK A01 T02990118  RH  033%=      5-min Rain = 0
KCL1 112310Z 11004KT 30/12 A3012 RMK A01 T02990115  RH  032%=      5-min Rain = 0
KCL1 112311Z 11005KT 30/12 A3012 RMK A01 T02990120  RH  033%=      5-min Rain = 0
KCL1 112312Z 11005KT 30/12 A3012 RMK A01 T03000115  RH  032%=      5-min Rain = 0
KCL1 112313Z 11005KT 30/12 A3012 RMK A01 T03000116  RH  032%=      5-min Rain = 0
KCL1 112314Z 11007KT 30/11 A3012 RMK A01 T02990112  RH  031%=      5-min Rain = 0
KCL1 112315Z 11009KT 30/11 A3012 RMK A01 T02990113  RH  032%=      5-min Rain = 0
KCL1 112316Z 11009KT 30/11 A3012 RMK A01 T02980114  RH  032%=      5-min Rain = 0
KCL1 112317Z 12009KT 30/12 A3012 RMK A01 T02980118  RH  033%=      5-min Rain = 0
KCL1 112318Z 12010KT 30/12 A3012 RMK A01 T02970116  RH  033%=      5-min Rain = 0
KCL1 112319Z 12010KT 30/12 A3012 RMK A01 T02970116  RH  033%=      5-min Rain = 0
KCL1 112320Z 13009KT 30/12 A3012 RMK A01 T02960116  RH  033%=      5-min Rain = 0
KCL1 112321Z 13008KT 30/12 A3012 RMK A01 T02950118  RH  034%=      5-min Rain = 0
KCL1 112322Z 14010KT 30/12 A3012 RMK A01 T02950118  RH  033%=      5-min Rain = 0
KCL1 112323Z 15010KT 29/12 A3012 RMK A01 T02940115  RH  033%=      5-min Rain = 0
KCL1 112324Z 14008KT 29/12 A3012 RMK A01 T02940117  RH  034%=      5-min Rain = 0
KCL1 112325Z 13008KT 29/12 A3012 RMK A01 T02940119  RH  034%=      5-min Rain = 0
KCL1 112326Z 13006KT 29/12 A3012 RMK A01 T02940118  RH  034%=      5-min Rain = 0
KCL1 112327Z 13007KT 29/12 A3012 RMK A01 T02940121  RH  034%=      5-min Rain = 0
KCL1 112328Z 13010KT 29/12 A3012 RMK A01 T02940119  RH  034%=      5-min Rain = 0
KCL1 112329Z 14009KT 29/12 A3012 RMK A01 T02930117  RH  034%=      5-min Rain = 0
KCL1 112330Z 13008KT 29/12 A3012 RMK A01 T02930116  RH  034%=      5-min Rain = 0
KCL1 112331Z 13010KT 29/12 A3012 RMK A01 T02920117  RH  034%=      5-min Rain = 0
KCL1 112332Z 14007KT 29/12 A3012 RMK A01 T02910115  RH  034%=      5-min Rain = 0
KCL1 112333Z 13007KT 29/12 A3012 RMK A01 T02910117  RH  034%=      5-min Rain = 0
KCL1 112334Z 13008KT 29/12 A3012 RMK A01 T02910118  RH  034%=      5-min Rain = 0
KCL1 112335Z 13006KT 29/12 A3012 RMK A01 T02910118  RH  034%=      5-min Rain = 0
KCL1 112336Z 13009KT 29/12 A3012 RMK A01 T02910120  RH  035%=      5-min Rain = 0
KCL1 112337Z 13008KT 29/12 A3012 RMK A01 T02910116  RH  034%=      5-min Rain = 0
KCL1 112338Z 14009KT 29/12 A3012 RMK A01 T02900115  RH  034%=      5-min Rain = 0
KCL1 112339Z 13009KT 29/12 A3012 RMK A01 T02900116  RH  034%=      5-min Rain = 0
KCL1 112340Z 14009KT 29/12 A3012 RMK A01 T02890117  RH  034%=      5-min Rain = 0
KCL1 112341Z 14008KT 29/12 A3012 RMK A01 T02890115  RH  034%=      5-min Rain = 0
KCL1 112342Z 13007KT 29/12 A3012 RMK A01 T02880115  RH  034%=      5-min Rain = 0
KCL1 112343Z 14009KT 29/12 A3012 RMK A01 T02880117  RH  035%=      5-min Rain = 0
KCL1 112344Z 14009KT 29/12 A3012 RMK A01 T02880115  RH  034%=      5-min Rain = 0
KCL1 112345Z 14008KT 29/11 A3012 RMK A01 T02870114  RH  034%=      5-min Rain = 0
KCL1 112346Z 14007KT 29/12 A3012 RMK A01 T02870116  RH  035%=      5-min Rain = 0
KCL1 112347Z 13007KT 29/12 A3012 RMK A01 T02870117  RH  035%=      5-min Rain = 0
KCL1 112348Z 13006KT 29/12 A3012 RMK A01 T02870118  RH  035%=      5-min Rain = 0
KCL1 112349Z 14007KT 29/12 A3012 RMK A01 T02870118  RH  035%=      5-min Rain = 0
KCL1 112350Z 14006KT 29/12 A3012 RMK A01 T02870118  RH  035%=      5-min Rain = 0
KCL1 112351Z 13005KT 29/12 A3012 RMK A01 T02860121  RH  036%=      5-min Rain = 0
KCL1 112352Z 13006KT 29/12 A3012 RMK A01 T02860121  RH  036%=      5-min Rain = 0
KCL1 112353Z 13008KT 29/12 A3012 RMK A01 T02860119  RH  036%=      5-min Rain = 0
KCL1 112354Z 13008KT 29/12 A3012 RMK A01 T02850116  RH  035%=      5-min Rain = 0
KCL1 112355Z 13009KT 29/12 A3012 RMK A01 T02850116  RH  035%=      5-min Rain = 0
KCL1 112356Z 14010KT 28/12 A3012 RMK A01 T02840115  RH  035%=      5-min Rain = 0
KCL1 112357Z 14009KT 28/12 A3012 RMK A01 T02840115  RH  035%=      5-min Rain = 0
KCL1 112358Z 14008KT 28/11 A3012 RMK A01 T02830114  RH  035%=      5-min Rain = 0
KCL1 112359Z 14006KT 28/12 A3012 RMK A01 T02830115  RH  035%=      5-min Rain = 0
KCL1 120000Z 14007KT 28/12 A3012 RMK A01 T02820117  RH  036%=      5-min Rain = 0
KCL1 120001Z 14009KT 28/12 A3012 RMK A01 T02820117  RH  036%=      5-min Rain = 0
KCL1 120002Z 14008KT 28/12 A3012 RMK A01 T02810115  RH  036%=      5-min Rain = 0
KCL1 120003Z 13007KT 28/12 A3012 RMK A01 T02810115  RH  036%=      5-min Rain = 0
KCL1 120004Z 14008KT 28/12 A3012 RMK A01 T02800116  RH  036%=      5-min Rain = 0
KCL1 120005Z 13008KT 28/12 A3012 RMK A01 T02790116  RH  036%=      5-min Rain = 0
KCL1 120006Z 14007KT 28/12 A3012 RMK A01 T02790117  RH  037%=      5-min Rain = 0
KCL1 120007Z 14008KT 28/12 A3012 RMK A01 T02780117  RH  037%=      5-min Rain = 0
KCL1 120008Z 13007KT 28/12 A3012 RMK A01 T02770116  RH  037%=      5-min Rain = 0
KCL1 120009Z 14008KT 28/12 A3012 RMK A01 T02770117  RH  037%=      5-min Rain = 0
KCL1 120010Z 14008KT 28/12 A3012 RMK A01 T02760116  RH  037%=      5-min Rain = 0
KCL1 120011Z 14007KT 28/12 A3012 RMK A01 T02760117  RH  037%=      5-min Rain = 0
KCL1 120012Z 14007KT 28/12 A3012 RMK A01 T02750118  RH  038%=      5-min Rain = 0
KCL1 120013Z 14009KT 28/12 A3012 RMK A01 T02750115  RH  037%=      5-min Rain = 0
KCL1 120014Z 14007KT 27/11 A3012 RMK A01 T02740113  RH  037%=      5-min Rain = 0
KCL1 120015Z 14007KT 27/11 A3012 RMK A01 T02740114  RH  037%=      5-min Rain = 0
KCL1 120016Z 14007KT 27/11 A3012 RMK A01 T02740114  RH  037%=      5-min Rain = 0
KCL1 120017Z 14007KT 27/11 A3012 RMK A01 T02740114  RH  037%=      5-min Rain = 0
KCL1 120018Z 14009KT 27/11 A3012 RMK A01 T02730114  RH  037%=      5-min Rain = 0
KCL1 120019Z 14008KT 27/11 A3012 RMK A01 T02730112  RH  037%=      5-min Rain = 0
KCL1 120020Z 14009KT 27/11 A3012 RMK A01 T02730113  RH  037%=      5-min Rain = 0
KCL1 120021Z 14009KT 27/11 A3012 RMK A01 T02720113  RH  037%=      5-min Rain = 0
KCL1 120022Z 14008KT 27/11 A3012 RMK A01 T02710114  RH  038%=      5-min Rain = 0
KCL1 120023Z 14008KT 27/11 A3012 RMK A01 T02700114  RH  038%=      5-min Rain = 0
KCL1 120024Z 14007KT 27/12 A3012 RMK A01 T02690115  RH  038%=      5-min Rain = 0
KCL1 120025Z 14007KT 27/11 A3012 RMK A01 T02680114  RH  038%=      5-min Rain = 0
KCL1 120026Z 14007KT 27/11 A3012 RMK A01 T02680114  RH  038%=      5-min Rain = 0
KCL1 120027Z 14008KT 27/11 A3012 RMK A01 T02670114  RH  039%=      5-min Rain = 0
KCL1 120028Z 14007KT 27/11 A3012 RMK A01 T02670113  RH  038%=      5-min Rain = 0
KCL1 120029Z 14007KT 27/11 A3012 RMK A01 T02670114  RH  039%=      5-min Rain = 0
KCL1 120030Z 14008KT 27/11 A3012 RMK A01 T02660114  RH  039%=      5-min Rain = 0
KCL1 120031Z 13007KT 27/11 A3012 RMK A01 T02650113  RH  039%=      5-min Rain = 0
KCL1 120032Z 13007KT 27/11 A3012 RMK A01 T02650114  RH  039%=      5-min Rain = 0
KCL1 120033Z 13007KT 27/12 A3012 RMK A01 T02650115  RH  039%=      5-min Rain = 0
KCL1 120034Z 14007KT 26/12 A3012 RMK A01 T02630115  RH  040%=      5-min Rain = 0
KCL1 120035Z 14007KT 26/12 A3012 RMK A01 T02620115  RH  040%=      5-min Rain = 0
KCL1 120036Z 14007KT 26/12 A3012 RMK A01 T02600115  RH  040%=      5-min Rain = 0
KCL1 120037Z 14008KT 26/12 A3012 RMK A01 T02590115  RH  040%=      5-min Rain = 0
KCL1 120038Z 14008KT 26/12 A3012 RMK A01 T02590115  RH  041%=      5-min Rain = 0
KCL1 120039Z 14007KT 26/12 A3012 RMK A01 T02580115  RH  041%=      5-min Rain = 0
KCL1 120040Z 14007KT 26/12 A3012 RMK A01 T02570115  RH  041%=      5-min Rain = 0
KCL1 120041Z 14007KT 26/12 A3012 RMK A01 T02560115  RH  041%=      5-min Rain = 0
KCL1 120042Z 14007KT 26/12 A3012 RMK A01 T02550115  RH  042%=      5-min Rain = 0
KCL1 120043Z 14006KT 25/12 A3012 RMK A01 T02540115  RH  042%=      5-min Rain = 0
KCL1 120044Z 14006KT 25/11 A3012 RMK A01 T02530114  RH  042%=      5-min Rain = 0
KCL1 120045Z 14007KT 25/11 A3012 RMK A01 T02540114  RH  042%=      5-min Rain = 0
KCL1 120046Z 14007KT 25/11 A3012 RMK A01 T02530114  RH  042%=      5-min Rain = 0
KCL1 120047Z 14007KT 25/11 A3012 RMK A01 T02520113  RH  042%=      5-min Rain = 0
KCL1 120048Z 14007KT 25/11 A3012 RMK A01 T02520114  RH  042%=      5-min Rain = 0
KCL1 120049Z 14007KT 25/11 A3012 RMK A01 T02520114  RH  042%=      5-min Rain = 0
KCL1 120050Z 14007KT 25/11 A3012 RMK A01 T02510113  RH  042%=      5-min Rain = 0
KCL1 120051Z 14008KT 25/11 A3012 RMK A01 T02510113  RH  042%=      5-min Rain = 0
KCL1 120052Z 14007KT 25/11 A3012 RMK A01 T02500113  RH  042%=      5-min Rain = 0
KCL1 120053Z 14007KT 25/11 A3012 RMK A01 T02490114  RH  043%=      5-min Rain = 0
KCL1 120054Z 14007KT 25/11 A3012 RMK A01 T02480113  RH  043%=      5-min Rain = 0
KCL1 120055Z 14007KT 25/11 A3012 RMK A01 T02480114  RH  043%=      5-min Rain = 0
KCL1 120056Z 14007KT 25/11 A3012 RMK A01 T02470114  RH  043%=      5-min Rain = 0
KCL1 120057Z 14007KT 25/12 A3012 RMK A01 T02460115  RH  044%=      5-min Rain = 0
KCL1 120058Z 14007KT 24/11 A3012 RMK A01 T02440114  RH  044%=      5-min Rain = 0
KCL1 120059Z 14007KT 24/11 A3012 RMK A01 T02430114  RH  044%=      5-min Rain = 0
KCL1 120100Z 15007KT 24/11 A3012 RMK A01 T02420114  RH  045%=      5-min Rain = 0
KCL1 120101Z 14007KT 24/11 A3013 RMK A01 T02400114  RH  045%=      5-min Rain = 0
KCL1 120102Z 14007KT 24/11 A3013 RMK A01 T02400114  RH  045%=      5-min Rain = 0
KCL1 120103Z 14007KT 24/11 A3013 RMK A01 T02390114  RH  045%=      5-min Rain = 0
KCL1 120104Z 14007KT 24/11 A3013 RMK A01 T02390114  RH  045%=      5-min Rain = 0
KCL1 120105Z 14007KT 24/11 A3013 RMK A01 T02380113  RH  046%=      5-min Rain = 0
KCL1 120106Z 14007KT 24/11 A3013 RMK A01 T02370113  RH  046%=      5-min Rain = 0
KCL1 120107Z 14007KT 24/11 A3013 RMK A01 T02360113  RH  046%=      5-min Rain = 0
KCL1 120108Z 14007KT 24/11 A3013 RMK A01 T02360113  RH  046%=      5-min Rain = 0
KCL1 120109Z 14007KT 24/11 A3013 RMK A01 T02350113  RH  046%=      5-min Rain = 0
KCL1 120110Z 14007KT 24/11 A3013 RMK A01 T02350113  RH  046%=      5-min Rain = 0
KCL1 120111Z 14007KT 23/11 A3013 RMK A01 T02340113  RH  047%=      5-min Rain = 0
KCL1 120112Z 14007KT 23/11 A3013 RMK A01 T02330113  RH  047%=      5-min Rain = 0
KCL1 120113Z 14006KT 23/11 A3013 RMK A01 T02320113  RH  047%=      5-min Rain = 0
KCL1 120114Z 14007KT 23/11 A3013 RMK A01 T02320113  RH  047%=      5-min Rain = 0
KCL1 120115Z 14007KT 23/11 A3013 RMK A01 T02310112  RH  047%=      5-min Rain = 0
KCL1 120116Z 14006KT 23/11 A3013 RMK A01 T02310112  RH  047%=      5-min Rain = 0
KCL1 120117Z 14006KT 23/11 A3013 RMK A01 T02310113  RH  047%=      5-min Rain = 0
KCL1 120118Z 14006KT 23/11 A3013 RMK A01 T02300112  RH  047%=      5-min Rain = 0
KCL1 120119Z 13007KT 23/11 A3013 RMK A01 T02300112  RH  048%=      5-min Rain = 0
KCL1 120120Z 13007KT 23/11 A3013 RMK A01 T02290112  RH  048%=      5-min Rain = 0
KCL1 120121Z 13007KT 23/11 A3013 RMK A01 T02280112  RH  048%=      5-min Rain = 0
KCL1 120122Z 13007KT 23/11 A3013 RMK A01 T02270112  RH  048%=      5-min Rain = 0
KCL1 120123Z 13007KT 23/11 A3013 RMK A01 T02270112  RH  048%=      5-min Rain = 0
KCL1 120124Z 13007KT 23/11 A3013 RMK A01 T02260112  RH  048%=      5-min Rain = 0
KCL1 120125Z 14007KT 23/11 A3013 RMK A01 T02250112  RH  049%=      5-min Rain = 0
KCL1 120126Z 14007KT 23/11 A3013 RMK A01 T02250112  RH  049%=      5-min Rain = 0
KCL1 120127Z 14006KT 23/11 A3013 RMK A01 T02250112  RH  049%=      5-min Rain = 0
KCL1 120128Z 14006KT 22/11 A3013 RMK A01 T02240112  RH  049%=      5-min Rain = 0
KCL1 120129Z 14006KT 22/11 A3013 RMK A01 T02240112  RH  049%=      5-min Rain = 0
KCL1 120130Z 14006KT 22/11 A3013 RMK A01 T02240112  RH  049%=      5-min Rain = 0
KCL1 120131Z 14006KT 22/11 A3013 RMK A01 T02230112  RH  049%=      5-min Rain = 0
KCL1 120132Z 15006KT 22/11 A3013 RMK A01 T02230112  RH  049%=      5-min Rain = 0
KCL1 120133Z 15006KT 22/11 A3013 RMK A01 T02230112  RH  049%=      5-min Rain = 0
KCL1 120134Z 15006KT 22/11 A3013 RMK A01 T02230112  RH  049%=      5-min Rain = 0
KCL1 120135Z 15006KT 22/11 A3013 RMK A01 T02230112  RH  049%=      5-min Rain = 0
KCL1 120136Z 15006KT 22/11 A3013 RMK A01 T02230112  RH  049%=      5-min Rain = 0
KCL1 120137Z 15006KT 22/11 A3013 RMK A01 T02240112  RH  049%=      5-min Rain = 0
KCL1 120138Z 15006KT 22/11 A3013 RMK A01 T02240112  RH  049%=      5-min Rain = 0
KCL1 120139Z 15007KT 22/11 A3013 RMK A01 T02240112  RH  049%=      5-min Rain = 0
KCL1 120140Z 15007KT 22/11 A3013 RMK A01 T02240112  RH  049%=      5-min Rain = 0
KCL1 120141Z 15007KT 22/11 A3013 RMK A01 T02240111  RH  049%=      5-min Rain = 0
KCL1 120142Z 15007KT 22/11 A3013 RMK A01 T02240111  RH  049%=      5-min Rain = 0
KCL1 120143Z 15007KT 22/11 A3013 RMK A01 T02240111  RH  049%=      5-min Rain = 0
KCL1 120144Z 15007KT 22/11 A3013 RMK A01 T02240112  RH  049%=      5-min Rain = 0
KCL1 120145Z 15007KT 22/11 A3013 RMK A01 T02240112  RH  049%=      5-min Rain = 0
KCL1 120146Z 15007KT 22/11 A3013 RMK A01 T02240112  RH  049%=      5-min Rain = 0
KCL1 120147Z 16006KT 22/11 A3013 RMK A01 T02230112  RH  049%=      5-min Rain = 0
KCL1 120148Z 16006KT 22/11 A3013 RMK A01 T02230112  RH  049%=      5-min Rain = 0
KCL1 120149Z 15006KT 22/11 A3013 RMK A01 T02230112  RH  049%=      5-min Rain = 0
KCL1 120150Z 15006KT 22/11 A3013 RMK A01 T02230112  RH  049%=      5-min Rain = 0
KCL1 120151Z 15006KT 22/11 A3013 RMK A01 T02230112  RH  049%=      5-min Rain = 0
KCL1 120152Z 15006KT 22/11 A3013 RMK A01 T02230111  RH  049%=      5-min Rain = 0
KCL1 120153Z 15006KT 22/11 A3013 RMK A01 T02230112  RH  049%=      5-min Rain = 0
KCL1 120154Z 15006KT 22/11 A3014 RMK A01 T02230112  RH  049%=      5-min Rain = 0
KCL1 120155Z 15006KT 22/11 A3014 RMK A01 T02230112  RH  049%=      5-min Rain = 0
KCL1 120156Z 16006KT 22/11 A3014 RMK A01 T02230112  RH  049%=      5-min Rain = 0
KCL1 120157Z 16007KT 22/11 A3014 RMK A01 T02240112  RH  049%=      5-min Rain = 0
KCL1 120158Z 15007KT 22/11 A3014 RMK A01 T02240112  RH  049%=      5-min Rain = 0
KCL1 120159Z 15007KT 22/11 A3014 RMK A01 T02240112  RH  049%=      5-min Rain = 0
KCL1 120200Z 15007KT 22/11 A3014 RMK A01 T02240112  RH  049%=      5-min Rain = 0
KCL1 120201Z 14007KT 22/11 A3014 RMK A01 T02230112  RH  049%=      5-min Rain = 0
KCL1 120202Z 14007KT 22/11 A3014 RMK A01 T02230112  RH  050%=      5-min Rain = 0
KCL1 120203Z 13007KT 22/11 A3014 RMK A01 T02220113  RH  050%=      5-min Rain = 0
KCL1 120204Z 13006KT 22/11 A3014 RMK A01 T02220113  RH  050%=      5-min Rain = 0
KCL1 120205Z 14006KT 22/11 A3014 RMK A01 T02210112  RH  050%=      5-min Rain = 0
KCL1 120206Z 14006KT 22/11 A3014 RMK A01 T02200112  RH  050%=      5-min Rain = 0
KCL1 120207Z 14006KT 22/11 A3014 RMK A01 T02190112  RH  051%=      5-min Rain = 0
KCL1 120208Z 14005KT 22/11 A3014 RMK A01 T02180112  RH  051%=      5-min Rain = 0
KCL1 120209Z 14005KT 22/11 A3014 RMK A01 T02170112  RH  051%=      5-min Rain = 0
KCL1 120210Z 14005KT 22/11 A3014 RMK A01 T02150112  RH  052%=      5-min Rain = 0
KCL1 120211Z 14004KT 21/11 A3014 RMK A01 T02140112  RH  052%=      5-min Rain = 0
KCL1 120212Z 14004KT 21/11 A3014 RMK A01 T02130112  RH  052%=      5-min Rain = 0
KCL1 120213Z 14003KT 21/11 A3014 RMK A01 T02120112  RH  053%=      5-min Rain = 0
KCL1 120214Z 14003KT 21/11 A3014 RMK A01 T02110112  RH  053%=      5-min Rain = 0
KCL1 120215Z 13004KT 21/11 A3014 RMK A01 T02100112  RH  053%=      5-min Rain = 0
KCL1 120216Z 13004KT 21/11 A3014 RMK A01 T02090111  RH  054%=      5-min Rain = 0
KCL1 120217Z 13005KT 21/11 A3014 RMK A01 T02080111  RH  054%=      5-min Rain = 0
KCL1 120218Z 13005KT 21/11 A3014 RMK A01 T02070111  RH  054%=      5-min Rain = 0
KCL1 120219Z 12004KT 21/11 A3014 RMK A01 T02070111  RH  054%=      5-min Rain = 0
KCL1 120220Z 12004KT 21/11 A3015 RMK A01 T02070111  RH  054%=      5-min Rain = 0
KCL1 120221Z 12005KT 21/11 A3015 RMK A01 T02060111  RH  054%=      5-min Rain = 0
KCL1 120222Z 13005KT 21/11 A3015 RMK A01 T02060111  RH  054%=      5-min Rain = 0
KCL1 120223Z 13005KT 21/11 A3015 RMK A01 T02050111  RH  055%=      5-min Rain = 0
KCL1 120224Z 13005KT 21/11 A3015 RMK A01 T02050111  RH  055%=      5-min Rain = 0
KCL1 120225Z 13005KT 21/11 A3015 RMK A01 T02050111  RH  055%=      5-min Rain = 0
KCL1 120226Z 14005KT 21/11 A3015 RMK A01 T02060111  RH  055%=      5-min Rain = 0
KCL1 120227Z 14005KT 21/11 A3015 RMK A01 T02060111  RH  055%=      5-min Rain = 0
KCL1 120228Z 14005KT 21/11 A3015 RMK A01 T02060111  RH  055%=      5-min Rain = 0
KCL1 120229Z 14005KT 21/11 A3015 RMK A01 T02060111  RH  055%=      5-min Rain = 0
KCL1 120230Z 15006KT 21/11 A3015 RMK A01 T02060111  RH  055%=      5-min Rain = 0
KCL1 120231Z 15006KT 21/11 A3015 RMK A01 T02060111  RH  055%=      5-min Rain = 0
KCL1 120232Z 14006KT 21/11 A3015 RMK A01 T02060111  RH  054%=      5-min Rain = 0
KCL1 120233Z 14006KT 21/11 A3015 RMK A01 T02060111  RH  054%=      5-min Rain = 0
KCL1 120234Z 15005KT 21/11 A3015 RMK A01 T02060111  RH  054%=      5-min Rain = 0
KCL1 120235Z 15005KT 21/11 A3015 RMK A01 T02060111  RH  055%=      5-min Rain = 0
KCL1 120236Z 15005KT 21/11 A3015 RMK A01 T02050111  RH  055%=      5-min Rain = 0
KCL1 120237Z 15006KT 21/11 A3015 RMK A01 T02050111  RH  055%=      5-min Rain = 0
KCL1 120238Z 14006KT 21/11 A3015 RMK A01 T02050111  RH  055%=      5-min Rain = 0
KCL1 120239Z 14006KT 21/11 A3015 RMK A01 T02050111  RH  055%=      5-min Rain = 0
KCL1 120240Z 14006KT 21/11 A3015 RMK A01 T02050111  RH  055%=      5-min Rain = 0
KCL1 120241Z 14006KT 20/11 A3015 RMK A01 T02040111  RH  055%=      5-min Rain = 0
KCL1 120242Z 14006KT 21/11 A3015 RMK A01 T02050111  RH  055%=      5-min Rain = 0
KCL1 120243Z 14006KT 21/11 A3015 RMK A01 T02050111  RH  055%=      5-min Rain = 0
KCL1 120244Z 15006KT 21/11 A3015 RMK A01 T02050110  RH  055%=      5-min Rain = 0
KCL1 120245Z 14006KT 21/11 A3015 RMK A01 T02050111  RH  055%=      5-min Rain = 0
KCL1 120246Z 14005KT 21/11 A3015 RMK A01 T02050111  RH  055%=      5-min Rain = 0
KCL1 120247Z 14006KT 21/11 A3015 RMK A01 T02050110  RH  055%=      5-min Rain = 0
KCL1 120248Z 14006KT 21/11 A3015 RMK A01 T02050110  RH  055%=      5-min Rain = 0
KCL1 120249Z 14006KT 21/11 A3015 RMK A01 T02050111  RH  055%=      5-min Rain = 0
KCL1 120250Z 14005KT 21/11 A3015 RMK A01 T02050111  RH  055%=      5-min Rain = 0
KCL1 120251Z 14006KT 21/11 A3015 RMK A01 T02050111  RH  055%=      5-min Rain = 0
KCL1 120252Z 14006KT 21/11 A3015 RMK A01 T02050111  RH  055%=      5-min Rain = 0
KCL1 120253Z 14006KT 20/11 A3015 RMK A01 T02040111  RH  055%=      5-min Rain = 0
KCL1 120254Z 14006KT 20/11 A3015 RMK A01 T02040111  RH  055%=      5-min Rain = 0
KCL1 120255Z 14006KT 20/11 A3015 RMK A01 T02030110  RH  055%=      5-min Rain = 0
KCL1 120256Z 14006KT 20/11 A3015 RMK A01 T02030111  RH  055%=      5-min Rain = 0
KCL1 120257Z 14006KT 20/11 A3015 RMK A01 T02030111  RH  055%=      5-min Rain = 0
KCL1 120258Z 14006KT 20/11 A3015 RMK A01 T02030111  RH  055%=      5-min Rain = 0
KCL1 120259Z 14006KT 20/11 A3015 RMK A01 T02030111  RH  055%=      5-min Rain = 0
KCL1 120300Z 14006KT 20/11 A3015 RMK A01 T02030111  RH  055%=      5-min Rain = 0
KCL1 120301Z 14006KT 20/11 A3015 RMK A01 T02030111  RH  055%=      5-min Rain = 0
KCL1 120302Z 14006KT 20/11 A3015 RMK A01 T02040111  RH  055%=      5-min Rain = 0
KCL1 120303Z 14006KT 20/11 A3015 RMK A01 T02030111  RH  055%=      5-min Rain = 0
KCL1 120304Z 14006KT 20/11 A3015 RMK A01 T02020111  RH  056%=      5-min Rain = 0
KCL1 120305Z 14007KT 20/11 A3015 RMK A01 T02020111  RH  056%=      5-min Rain = 0
KCL1 120306Z 14006KT 20/11 A3015 RMK A01 T02030111  RH  056%=      5-min Rain = 0
KCL1 120307Z 13006KT 20/11 A3015 RMK A01 T02030111  RH  056%=      5-min Rain = 0
KCL1 120308Z 13006KT 20/11 A3015 RMK A01 T02030111  RH  056%=      5-min Rain = 0
KCL1 120309Z 13006KT 20/11 A3015 RMK A01 T02030111  RH  056%=      5-min Rain = 0
KCL1 120310Z 13006KT 20/11 A3015 RMK A01 T02040112  RH  055%=      5-min Rain = 0
KCL1 120311Z 13006KT 20/11 A3015 RMK A01 T02040112  RH  055%=      5-min Rain = 0
KCL1 120312Z 13006KT 20/11 A3015 RMK A01 T02040112  RH  055%=      5-min Rain = 0
KCL1 120313Z 13006KT 20/11 A3015 RMK A01 T02040112  RH  055%=      5-min Rain = 0
KCL1 120314Z 13005KT 20/11 A3015 RMK A01 T02040112  RH  056%=      5-min Rain = 0
KCL1 120315Z 13006KT 20/11 A3015 RMK A01 T02030112  RH  056%=      5-min Rain = 0
KCL1 120316Z 13006KT 20/11 A3015 RMK A01 T02030112  RH  056%=      5-min Rain = 0
KCL1 120317Z 13006KT 20/11 A3015 RMK A01 T02030111  RH  055%=      5-min Rain = 0
KCL1 120318Z 13005KT 20/11 A3015 RMK A01 T02030111  RH  055%=      5-min Rain = 0
KCL1 120319Z 13005KT 20/11 A3015 RMK A01 T02030111  RH  055%=      5-min Rain = 0
KCL1 120320Z 13005KT 20/11 A3015 RMK A01 T02030111  RH  056%=      5-min Rain = 0
KCL1 120321Z 13005KT 20/11 A3015 RMK A01 T02030112  RH  056%=      5-min Rain = 0
KCL1 120322Z 13004KT 20/11 A3015 RMK A01 T02030112  RH  056%=      5-min Rain = 0
KCL1 120323Z 14005KT 20/11 A3015 RMK A01 T02020111  RH  056%=      5-min Rain = 0
KCL1 120324Z 14005KT 20/11 A3015 RMK A01 T02010111  RH  056%=      5-min Rain = 0
KCL1 120325Z 14005KT 20/11 A3015 RMK A01 T02010111  RH  056%=      5-min Rain = 0
KCL1 120326Z 14005KT 20/11 A3015 RMK A01 T02010111  RH  056%=      5-min Rain = 0
KCL1 120327Z 14005KT 20/11 A3015 RMK A01 T02010111  RH  056%=      5-min Rain = 0
KCL1 120328Z 14005KT 20/11 A3015 RMK A01 T02000111  RH  056%=      5-min Rain = 0
KCL1 120329Z 14005KT 20/11 A3015 RMK A01 T02000111  RH  057%=      5-min Rain = 0
KCL1 120330Z 14005KT 20/11 A3015 RMK A01 T01990111  RH  057%=      5-min Rain = 0
KCL1 120331Z 14005KT 20/11 A3015 RMK A01 T01990111  RH  057%=      5-min Rain = 0
KCL1 120332Z 14005KT 20/11 A3015 RMK A01 T01980111  RH  057%=      5-min Rain = 0
KCL1 120333Z 14006KT 20/11 A3015 RMK A01 T01970111  RH  057%=      5-min Rain = 0
KCL1 120334Z 14006KT 20/11 A3015 RMK A01 T01970111  RH  057%=      5-min Rain = 0
KCL1 120335Z 14006KT 20/11 A3015 RMK A01 T01970111  RH  058%=      5-min Rain = 0
KCL1 120336Z 14006KT 20/11 A3015 RMK A01 T01960111  RH  058%=      5-min Rain = 0
KCL1 120337Z 14005KT 20/11 A3015 RMK A01 T01960111  RH  058%=      5-min Rain = 0
KCL1 120338Z 14006KT 20/11 A3015 RMK A01 T01960111  RH  058%=      5-min Rain = 0
KCL1 120339Z 14006KT 20/11 A3015 RMK A01 T01960111  RH  058%=      5-min Rain = 0
KCL1 120340Z 14006KT 20/11 A3015 RMK A01 T01960110  RH  058%=      5-min Rain = 0
KCL1 120341Z 14006KT 20/11 A3015 RMK A01 T01960110  RH  057%=      5-min Rain = 0
KCL1 120342Z 14007KT 20/11 A3015 RMK A01 T01960109  RH  057%=      5-min Rain = 0
KCL1 120343Z 15007KT 20/11 A3015 RMK A01 T01970110  RH  057%=      5-min Rain = 0
KCL1 120344Z 15007KT 20/11 A3015 RMK A01 T01970110  RH  057%=      5-min Rain = 0
KCL1 120345Z 15006KT 20/11 A3015 RMK A01 T01980110  RH  057%=      5-min Rain = 0
KCL1 120346Z 15005KT 20/11 A3015 RMK A01 T01980111  RH  057%=      5-min Rain = 0
KCL1 120347Z 15005KT 20/11 A3015 RMK A01 T01980111  RH  057%=      5-min Rain = 0
KCL1 120348Z 14006KT 20/11 A3015 RMK A01 T01990111  RH  057%=      5-min Rain = 0
KCL1 120349Z 14006KT 20/11 A3015 RMK A01 T01980111  RH  057%=      5-min Rain = 0
KCL1 120350Z 14006KT 20/11 A3015 RMK A01 T01980111  RH  057%=      5-min Rain = 0
KCL1 120351Z 14006KT 20/11 A3015 RMK A01 T01970110  RH  057%=      5-min Rain = 0
KCL1 120352Z 14006KT 20/11 A3015 RMK A01 T01970111  RH  057%=      5-min Rain = 0
KCL1 120353Z 14006KT 20/11 A3015 RMK A01 T01960110  RH  058%=      5-min Rain = 0
KCL1 120354Z 13005KT 20/11 A3015 RMK A01 T01950110  RH  058%=      5-min Rain = 0
KCL1 120355Z 13005KT 19/11 A3015 RMK A01 T01940110  RH  058%=      5-min Rain = 0
KCL1 120356Z 14005KT 19/11 A3015 RMK A01 T01930110  RH  059%=      5-min Rain = 0
KCL1 120357Z 14005KT 19/11 A3015 RMK A01 T01920109  RH  059%=      5-min Rain = 0
KCL1 120358Z 14005KT 19/11 A3015 RMK A01 T01910110  RH  059%=      5-min Rain = 0
KCL1 120359Z 13005KT 19/11 A3015 RMK A01 T01920110  RH  059%=      5-min Rain = 0
KCL1 120400Z 14005KT 19/11 A3015 RMK A01 T01910110  RH  059%=      5-min Rain = 0
KCL1 120401Z 14005KT 19/11 A3015 RMK A01 T01910109  RH  059%=      5-min Rain = 0
KCL1 120402Z 14006KT 19/11 A3015 RMK A01 T01900109  RH  059%=      5-min Rain = 0
KCL1 120403Z 14006KT 19/11 A3015 RMK A01 T01900110  RH  059%=      5-min Rain = 0
KCL1 120404Z 14006KT 19/11 A3015 RMK A01 T01900110  RH  060%=      5-min Rain = 0
KCL1 120405Z 14006KT 19/11 A3015 RMK A01 T01900110  RH  060%=      5-min Rain = 0
KCL1 120406Z 14006KT 19/11 A3015 RMK A01 T01900110  RH  060%=      5-min Rain = 0
KCL1 120407Z 14006KT 19/11 A3015 RMK A01 T01900110  RH  060%=      5-min Rain = 0
KCL1 120408Z 14006KT 19/11 A3015 RMK A01 T01900110  RH  059%=      5-min Rain = 0
KCL1 120409Z 14006KT 19/11 A3015 RMK A01 T01900110  RH  059%=      5-min Rain = 0
KCL1 120410Z 14007KT 19/11 A3015 RMK A01 T01900110  RH  060%=      5-min Rain = 0
KCL1 120411Z 14006KT 19/11 A3015 RMK A01 T01900110  RH  060%=      5-min Rain = 0
KCL1 120412Z 14006KT 19/11 A3015 RMK A01 T01900110  RH  060%=      5-min Rain = 0
KCL1 120413Z 14006KT 19/11 A3015 RMK A01 T01900110  RH  060%=      5-min Rain = 0
KCL1 120414Z 14007KT 19/11 A3015 RMK A01 T01900110  RH  060%=      5-min Rain = 0
KCL1 120415Z 14006KT 19/11 A3015 RMK A01 T01900110  RH  060%=      5-min Rain = 0
KCL1 120416Z 14006KT 19/11 A3015 RMK A01 T01900110  RH  060%=      5-min Rain = 0
KCL1 120417Z 14006KT 19/11 A3015 RMK A01 T01900110  RH  060%=      5-min Rain = 0
KCL1 120418Z 14006KT 19/11 A3016 RMK A01 T01900110  RH  060%=      5-min Rain = 0
KCL1 120419Z 14006KT 19/11 A3015 RMK A01 T01900110  RH  060%=      5-min Rain = 0
KCL1 120420Z 14007KT 19/11 A3015 RMK A01 T01890110  RH  060%=      5-min Rain = 0
KCL1 120421Z 14007KT 19/11 A3016 RMK A01 T01890110  RH  060%=      5-min Rain = 0
KCL1 120422Z 14007KT 19/11 A3016 RMK A01 T01890110  RH  060%=      5-min Rain = 0
KCL1 120423Z 14007KT 19/11 A3016 RMK A01 T01900110  RH  060%=      5-min Rain = 0
KCL1 120424Z 14007KT 19/11 A3016 RMK A01 T01900111  RH  060%=      5-min Rain = 0
KCL1 120425Z 14007KT 19/11 A3016 RMK A01 T01900110  RH  060%=      5-min Rain = 0
KCL1 120426Z 14006KT 19/11 A3016 RMK A01 T01900111  RH  060%=      5-min Rain = 0
KCL1 120427Z 14006KT 19/11 A3016 RMK A01 T01910111  RH  060%=      5-min Rain = 0
KCL1 120428Z 14006KT 19/11 A3016 RMK A01 T01910111  RH  060%=      5-min Rain = 0
KCL1 120429Z 14005KT 19/11 A3016 RMK A01 T01920111  RH  059%=      5-min Rain = 0
KCL1 120430Z 14006KT 19/11 A3016 RMK A01 T01920111  RH  059%=      5-min Rain = 0
KCL1 120431Z 14005KT 19/11 A3016 RMK A01 T01920111  RH  059%=      5-min Rain = 0
KCL1 120432Z 14005KT 19/11 A3016 RMK A01 T01920111  RH  059%=      5-min Rain = 0
KCL1 120433Z 14006KT 19/11 A3016 RMK A01 T01920111  RH  059%=      5-min Rain = 0
KCL1 120434Z 14006KT 19/11 A3016 RMK A01 T01910111  RH  059%=      5-min Rain = 0
KCL1 120435Z 14005KT 19/11 A3016 RMK A01 T01920111  RH  060%=      5-min Rain = 0
KCL1 120436Z 14004KT 19/11 A3016 RMK A01 T01910111  RH  060%=      5-min Rain = 0
KCL1 120437Z 15003KT 19/11 A3016 RMK A01 T01900110  RH  060%=      5-min Rain = 0
KCL1 120438Z 15002KT 19/11 A3016 RMK A01 T01860108  RH  060%=      5-min Rain = 0
KCL1 120439Z 15003KT 18/11 A3016 RMK A01 T01840108  RH  061%=      5-min Rain = 0
KCL1 120440Z 16004KT 18/11 A3016 RMK A01 T01840109  RH  062%=      5-min Rain = 0
KCL1 120441Z 16004KT 18/11 A3016 RMK A01 T01840109  RH  062%=      5-min Rain = 0
KCL1 120442Z 16004KT 19/11 A3016 RMK A01 T01850109  RH  061%=      5-min Rain = 0
KCL1 120443Z 15004KT 19/11 A3016 RMK A01 T01850109  RH  061%=      5-min Rain = 0
KCL1 120444Z 15005KT 19/11 A3016 RMK A01 T01850109  RH  061%=      5-min Rain = 0
KCL1 120445Z 15005KT 19/11 A3016 RMK A01 T01850109  RH  061%=      5-min Rain = 0
KCL1 120446Z 15004KT 19/11 A3016 RMK A01 T01850109  RH  061%=      5-min Rain = 0
KCL1 120447Z 15004KT 19/11 A3016 RMK A01 T01860109  RH  061%=      5-min Rain = 0
KCL1 120448Z 15004KT 19/11 A3016 RMK A01 T01870109  RH  060%=      5-min Rain = 0
KCL1 120449Z 15004KT 19/11 A3016 RMK A01 T01880109  RH  060%=      5-min Rain = 0
KCL1 120450Z 15004KT 19/11 A3016 RMK A01 T01880109  RH  060%=      5-min Rain = 0
KCL1 120451Z 15005KT 19/11 A3016 RMK A01 T01880109  RH  060%=      5-min Rain = 0
KCL1 120452Z 14005KT 19/11 A3016 RMK A01 T01880109  RH  060%=      5-min Rain = 0
KCL1 120453Z 14005KT 19/11 A3016 RMK A01 T01880109  RH  060%=      5-min Rain = 0
KCL1 120454Z 14005KT 19/11 A3016 RMK A01 T01870108  RH  060%=      5-min Rain = 0
KCL1 120455Z 14005KT 19/11 A3015 RMK A01 T01870108  RH  060%=      5-min Rain = 0
KCL1 120456Z 14005KT 19/11 A3016 RMK A01 T01860109  RH  060%=      5-min Rain = 0
KCL1 120457Z 13004KT 19/11 A3016 RMK A01 T01860108  RH  061%=      5-min Rain = 0
KCL1 120458Z 14004KT 19/11 A3016 RMK A01 T01850108  RH  061%=      5-min Rain = 0
KCL1 120459Z 14004KT 19/11 A3015 RMK A01 T01850109  RH  061%=      5-min Rain = 0

Page generated in 0.1799 seconds.